Wetterdaten: Sonntag, 14.03.2021
Datum Zeit Temp. Aussen Temp. o. S. Temp +5cm Feuchte Auss Luftdruck Regen Sonnenschein Regendauer Solar Windben Empfang
14.03.2021 00:00 4,9 C 4,4 C 2,8 C 85 % 1001,3 hPa 0,0 l/m 0 min 0 min 0 W/m 16,1 km/h (3 Bft) 97,87 %
14.03.2021 00:02 4,9 C 3,9 C 2,8 C 85 % 1001,4 hPa 0,0 l/m 0 min 0 min 0 W/m 12,9 km/h (3 Bft) 89,74 %
14.03.2021 00:04 4,9 C 3,9 C 2,8 C 85 % 1001,4 hPa 0,0 l/m 0 min 0 min 0 W/m 12,9 km/h (3 Bft) 97,83 %
14.03.2021 00:08 4,8 C 3,9 C 2,8 C 85 % 1001,4 hPa 0,0 l/m 0 min 0 min 0 W/m 19,3 km/h (3 Bft) 97,87 %
14.03.2021 00:10 4,8 C 3,9 C 2,8 C 85 % 1001,4 hPa 0,0 l/m 0 min 0 min 0 W/m 6,4 km/h (2 Bft) 97,87 %
14.03.2021 00:12 4,7 C 3,9 C 2,8 C 86 % 1001,5 hPa 0,0 l/m 0 min 0 min 0 W/m 6,4 km/h (2 Bft) 97,87 %
14.03.2021 00:14 4,7 C 3,9 C 2,8 C 86 % 1001,4 hPa 0,0 l/m 0 min 0 min 0 W/m 12,9 km/h (3 Bft) 100,00 %
14.03.2021 00:16 4,6 C 3,9 C 2,8 C 86 % 1001,5 hPa 0,0 l/m 0 min 0 min 0 W/m 9,7 km/h (2 Bft) 100,00 %
14.03.2021 00:18 4,6 C 3,9 C 2,8 C 86 % 1001,5 hPa 0,0 l/m 0 min 0 min 0 W/m 12,9 km/h (3 Bft) 100,00 %
14.03.2021 00:20 4,6 C 3,9 C 2,8 C 87 % 1001,6 hPa 0,0 l/m 0 min 0 min 0 W/m 16,1 km/h (3 Bft) 100,00 %
14.03.2021 00:22 4,6 C 3,9 C 2,8 C 87 % 1001,6 hPa 0,0 l/m 0 min 0 min 0 W/m 6,4 km/h (2 Bft) 100,00 %
14.03.2021 00:24 4,5 C 3,9 C 2,8 C 87 % 1001,6 hPa 0,0 l/m 0 min 0 min 0 W/m 12,9 km/h (3 Bft) 100,00 %
14.03.2021 00:26 4,5 C 3,9 C 2,8 C 87 % 1001,7 hPa 0,0 l/m 0 min 0 min 0 W/m 12,9 km/h (3 Bft) 100,00 %
14.03.2021 00:28 4,5 C 3,9 C 2,8 C 87 % 1001,8 hPa 0,0 l/m 0 min 0 min 0 W/m 16,1 km/h (3 Bft) 97,83 %
14.03.2021 00:30 4,5 C 3,9 C 2,8 C 87 % 1001,7 hPa 0,0 l/m 0 min 0 min 0 W/m 16,1 km/h (3 Bft) 100,00 %
14.03.2021 00:35 4,5 C 3,9 C 2,3 C 87 % 1001,8 hPa 0,0 l/m 0 min 0 min 0 W/m 12,9 km/h (3 Bft) 100,00 %
14.03.2021 00:40 4,4 C 3,9 C 2,3 C 87 % 1001,9 hPa 0,0 l/m 0 min 0 min 0 W/m 19,3 km/h (3 Bft) 100,00 %
14.03.2021 00:45 4,3 C 3,3 C 2,3 C 88 % 1001,9 hPa 0,0 l/m 0 min 0 min 0 W/m 12,9 km/h (3 Bft) 83,33 %
14.03.2021 00:50 4,3 C 3,3 C 2,3 C 88 % 1001,9 hPa 0,0 l/m 0 min 0 min 0 W/m 16,1 km/h (3 Bft) 100,00 %
14.03.2021 00:55 4,2 C 3,3 C 2,3 C 88 % 1002,0 hPa 0,0 l/m 0 min 0 min 0 W/m 19,3 km/h (3 Bft) 100,00 %
14.03.2021 01:00 4,2 C 3,3 C 2,3 C 88 % 1002,0 hPa 0,0 l/m 0 min 0 min 0 W/m 16,1 km/h (3 Bft) 100,00 %
14.03.2021 01:05 4,2 C 3,3 C 2,3 C 88 % 1002,0 hPa 0,0 l/m 0 min 0 min 0 W/m 12,9 km/h (3 Bft) 100,00 %
14.03.2021 01:10 4,2 C 3,3 C 2,3 C 88 % 1002,1 hPa 0,0 l/m 0 min 0 min 0 W/m 19,3 km/h (3 Bft) 100,00 %
14.03.2021 01:15 4,2 C 3,3 C 2,3 C 87 % 1002,1 hPa 0,0 l/m 0 min 0 min 0 W/m 12,9 km/h (3 Bft) 100,00 %
14.03.2021 01:20 4,2 C 3,3 C 2,3 C 87 % 1002,2 hPa 0,0 l/m 0 min 0 min 0 W/m 22,5 km/h (4 Bft) 100,00 %
14.03.2021 01:25 4,3 C 3,9 C 2,8 C 87 % 1002,4 hPa 0,0 l/m 0 min 0 min 0 W/m 22,5 km/h (4 Bft) 100,00 %
14.03.2021 01:30 4,3 C 3,9 C 2,3 C 87 % 1002,5 hPa 0,0 l/m 0 min 0 min 0 W/m 19,3 km/h (3 Bft) 100,00 %
14.03.2021 01:35 4,2 C 3,3 C 2,3 C 87 % 1002,5 hPa 0,0 l/m 0 min 0 min 0 W/m 19,3 km/h (3 Bft) 100,00 %
14.03.2021 01:40 4,1 C 3,3 C 2,3 C 87 % 1002,6 hPa 0,0 l/m 0 min 0 min 0 W/m 22,5 km/h (4 Bft) 99,12 %
14.03.2021 01:45 4,1 C 3,3 C 2,3 C 88 % 1002,7 hPa 0,0 l/m 0 min 0 min 0 W/m 12,9 km/h (3 Bft) 100,00 %
14.03.2021 01:50 4,0 C 3,3 C 2,3 C 88 % 1002,8 hPa 0,0 l/m 0 min 0 min 0 W/m 12,9 km/h (3 Bft) 99,12 %
14.03.2021 01:55 4,0 C 3,3 C 2,3 C 88 % 1003,0 hPa 0,0 l/m 0 min 0 min 0 W/m 19,3 km/h (3 Bft) 96,49 %
14.03.2021 02:00 4,0 C 3,3 C 2,3 C 88 % 1003,0 hPa 0,0 l/m 0 min 0 min 0 W/m 16,1 km/h (3 Bft) 95,61 %
14.03.2021 02:05 4,0 C 3,3 C 2,3 C 89 % 1003,1 hPa 0,0 l/m 0 min 0 min 0 W/m 19,3 km/h (3 Bft) 95,61 %
14.03.2021 02:10 4,0 C 3,3 C 2,3 C 89 % 1003,2 hPa 0,0 l/m 0 min 0 min 0 W/m 9,7 km/h (2 Bft) 96,49 %
14.03.2021 02:15 4,1 C 3,3 C 2,3 C 89 % 1003,3 hPa 0,0 l/m 0 min 0 min 0 W/m 16,1 km/h (3 Bft) 94,74 %
14.03.2021 02:20 4,1 C 3,9 C 2,8 C 89 % 1003,4 hPa 0,0 l/m 0 min 0 min 0 W/m 16,1 km/h (3 Bft) 95,61 %
14.03.2021 02:25 4,2 C 3,9 C 2,8 C 89 % 1003,4 hPa 0,0 l/m 0 min 0 min 0 W/m 19,3 km/h (3 Bft) 95,61 %
14.03.2021 02:30 4,3 C 3,9 C 2,8 C 89 % 1003,4 hPa 0,0 l/m 0 min 0 min 0 W/m 12,9 km/h (3 Bft) 95,61 %
14.03.2021 02:35 4,3 C 3,9 C 2,8 C 89 % 1003,5 hPa 0,0 l/m 0 min 0 min 0 W/m 16,1 km/h (3 Bft) 100,00 %
14.03.2021 02:40 4,4 C 3,9 C 2,8 C 89 % 1003,5 hPa 0,0 l/m 0 min 0 min 0 W/m 12,9 km/h (3 Bft) 99,12 %
14.03.2021 02:45 4,4 C 3,9 C 2,8 C 89 % 1003,6 hPa 0,0 l/m 0 min 0 min 0 W/m 29,0 km/h (5 Bft) 100,00 %
14.03.2021 02:50 4,4 C 3,9 C 2,8 C 89 % 1003,6 hPa 0,0 l/m 0 min 0 min 0 W/m 16,1 km/h (3 Bft) 100,00 %
14.03.2021 02:55 4,4 C 3,9 C 2,8 C 89 % 1003,7 hPa 0,0 l/m 0 min 0 min 0 W/m 16,1 km/h (3 Bft) 98,25 %
14.03.2021 03:00 4,4 C 3,9 C 2,8 C 89 % 1003,7 hPa 0,0 l/m 0 min 0 min 0 W/m 25,7 km/h (4 Bft) 100,00 %
14.03.2021 03:05 4,4 C 3,9 C 2,8 C 89 % 1003,7 hPa 0,0 l/m 0 min 0 min 0 W/m 16,1 km/h (3 Bft) 100,00 %
14.03.2021 03:10 4,4 C 3,9 C 2,8 C 88 % 1003,8 hPa 0,0 l/m 0 min 0 min 0 W/m 12,9 km/h (3 Bft) 100,00 %
14.03.2021 03:15 4,4 C 3,9 C 2,8 C 88 % 1003,8 hPa 0,0 l/m 0 min 0 min 0 W/m 19,3 km/h (3 Bft) 100,00 %
14.03.2021 03:20 4,4 C 3,9 C 2,8 C 88 % 1003,9 hPa 0,0 l/m 0 min 0 min 0 W/m 19,3 km/h (3 Bft) 100,00 %
14.03.2021 03:25 4,4 C 3,9 C 2,8 C 88 % 1003,9 hPa 0,0 l/m 0 min 0 min 0 W/m 19,3 km/h (3 Bft) 100,00 %
14.03.2021 03:30 4,4 C 3,9 C 2,8 C 88 % 1004,0 hPa 0,0 l/m 0 min 0 min 0 W/m 22,5 km/h (4 Bft) 100,00 %
14.03.2021 03:35 4,4 C 3,9 C 2,8 C 88 % 1003,9 hPa 0,0 l/m 0 min 0 min 0 W/m 16,1 km/h (3 Bft) 100,00 %
14.03.2021 03:40 4,4 C 3,9 C 2,8 C 89 % 1004,1 hPa 0,0 l/m 0 min 0 min 0 W/m 25,7 km/h (4 Bft) 100,00 %
14.03.2021 03:45 4,3 C 3,9 C 2,8 C 89 % 1004,1 hPa 0,0 l/m 0 min 0 min 0 W/m 16,1 km/h (3 Bft) 100,00 %
14.03.2021 03:50 4,3 C 3,9 C 2,8 C 89 % 1004,2 hPa 0,0 l/m 0 min 0 min 0 W/m 25,7 km/h (4 Bft) 100,00 %
14.03.2021 03:55 4,3 C 3,9 C 2,8 C 89 % 1004,2 hPa 0,0 l/m 0 min 0 min 0 W/m 25,7 km/h (4 Bft) 100,00 %
14.03.2021 04:00 4,3 C 3,9 C 2,8 C 89 % 1004,2 hPa 0,0 l/m 0 min 0 min 0 W/m 25,7 km/h (4 Bft) 100,00 %
14.03.2021 04:05 4,2 C 3,3 C 2,8 C 89 % 1004,4 hPa 0,0 l/m 0 min 0 min 0 W/m 12,9 km/h (3 Bft) 100,00 %
14.03.2021 04:10 4,1 C 3,3 C 2,3 C 89 % 1004,6 hPa 0,0 l/m 0 min 0 min 0 W/m 16,1 km/h (3 Bft) 100,00 %
14.03.2021 04:12 4,1 C 3,3 C 2,3 C 89 % 1004,6 hPa 0,0 l/m 0 min 0 min 0 W/m 16,1 km/h (3 Bft) 100,00 %
14.03.2021 04:14 4,0 C 3,3 C 2,3 C 89 % 1004,6 hPa 0,0 l/m 0 min 0 min 0 W/m 12,9 km/h (3 Bft) 94,44 %
14.03.2021 04:16 4,0 C 3,3 C 2,3 C 89 % 1004,6 hPa 0,0 l/m 0 min 0 min 0 W/m 9,7 km/h (2 Bft) 97,87 %
14.03.2021 04:18 4,0 C 3,3 C 2,3 C 89 % 1004,7 hPa 0,0 l/m 0 min 0 min 0 W/m 16,1 km/h (3 Bft) 97,87 %
14.03.2021 04:20 4,0 C 3,3 C 2,3 C 89 % 1004,7 hPa 0,0 l/m 0 min 0 min 0 W/m 19,3 km/h (3 Bft) 97,87 %
14.03.2021 04:22 3,9 C 3,3 C 2,3 C 89 % 1004,6 hPa 0,0 l/m 0 min 0 min 0 W/m 12,9 km/h (3 Bft) 97,83 %
14.03.2021 04:24 3,9 C 3,3 C 2,3 C 89 % 1004,7 hPa 0,0 l/m 0 min 0 min 0 W/m 12,9 km/h (3 Bft) 97,87 %
14.03.2021 04:26 3,9 C 3,3 C 2,3 C 89 % 1004,7 hPa 0,0 l/m 0 min 0 min 0 W/m 16,1 km/h (3 Bft) 97,87 %
14.03.2021 04:28 3,9 C 3,3 C 2,3 C 89 % 1004,8 hPa 0,0 l/m 0 min 0 min 0 W/m 12,9 km/h (3 Bft) 97,87 %
14.03.2021 04:30 3,9 C 3,3 C 2,3 C 89 % 1004,8 hPa 0,0 l/m 0 min 0 min 0 W/m 12,9 km/h (3 Bft) 97,87 %
14.03.2021 04:32 3,9 C 3,3 C 2,3 C 89 % 1004,9 hPa 0,0 l/m 0 min 0 min 0 W/m 12,9 km/h (3 Bft) 97,87 %
14.03.2021 04:34 3,9 C 3,3 C 2,3 C 89 % 1004,8 hPa 0,0 l/m 0 min 0 min 0 W/m 16,1 km/h (3 Bft) 97,87 %
14.03.2021 04:36 3,9 C 3,3 C 2,3 C 89 % 1004,8 hPa 0,0 l/m 0 min 0 min 0 W/m 6,4 km/h (2 Bft) 97,83 %
14.03.2021 04:38 3,9 C 3,3 C 2,3 C 89 % 1004,8 hPa 0,0 l/m 0 min 0 min 0 W/m 16,1 km/h (3 Bft) 95,74 %
14.03.2021 04:40 3,9 C 3,3 C 2,3 C 90 % 1004,9 hPa 0,0 l/m 0 min 0 min 0 W/m 16,1 km/h (3 Bft) 97,87 %
14.03.2021 04:42 3,9 C 3,3 C 2,3 C 90 % 1004,9 hPa 0,0 l/m 0 min 0 min 0 W/m 12,9 km/h (3 Bft) 95,74 %
14.03.2021 04:44 3,9 C 3,3 C 2,3 C 89 % 1005,0 hPa 0,0 l/m 0 min 0 min 0 W/m 12,9 km/h (3 Bft) 93,62 %
14.03.2021 04:46 3,9 C 3,3 C 2,3 C 89 % 1005,0 hPa 0,0 l/m 0 min 0 min 0 W/m 12,9 km/h (3 Bft) 95,65 %
14.03.2021 04:48 3,9 C 3,3 C 2,3 C 89 % 1005,0 hPa 0,0 l/m 0 min 0 min 0 W/m 19,3 km/h (3 Bft) 95,74 %
14.03.2021 04:50 3,9 C 3,3 C 2,3 C 89 % 1005,0 hPa 0,0 l/m 0 min 0 min 0 W/m 16,1 km/h (3 Bft) 97,87 %
14.03.2021 04:52 3,9 C 3,3 C 2,3 C 89 % 1005,0 hPa 0,0 l/m 0 min 0 min 0 W/m 22,5 km/h (4 Bft) 97,87 %
14.03.2021 04:54 4,0 C 3,3 C 2,3 C 89 % 1005,1 hPa 0,0 l/m 0 min 0 min 0 W/m 16,1 km/h (3 Bft) 93,62 %
14.03.2021 04:56 4,0 C 3,3 C 2,3 C 89 % 1005,1 hPa 0,0 l/m 0 min 0 min 0 W/m 22,5 km/h (4 Bft) 95,74 %
14.03.2021 04:58 4,0 C 3,3 C 2,3 C 89 % 1005,1 hPa 0,0 l/m 0 min 0 min 0 W/m 12,9 km/h (3 Bft) 97,83 %
14.03.2021 05:00 4,0 C 3,3 C 2,3 C 89 % 1005,3 hPa 0,0 l/m 0 min 0 min 0 W/m 12,9 km/h (3 Bft) 97,87 %
14.03.2021 05:02 4,0 C 3,3 C 2,3 C 89 % 1005,3 hPa 0,0 l/m 0 min 0 min 0 W/m 16,1 km/h (3 Bft) 95,74 %
14.03.2021 05:04 4,0 C 3,3 C 2,3 C 89 % 1005,4 hPa 0,0 l/m 0 min 0 min 0 W/m 19,3 km/h (3 Bft) 100,00 %
14.03.2021 05:06 4,0 C 3,3 C 2,3 C 89 % 1005,4 hPa 0,0 l/m 0 min 0 min 0 W/m 19,3 km/h (3 Bft) 97,87 %
14.03.2021 05:08 4,0 C 3,3 C 2,3 C 89 % 1005,4 hPa 0,0 l/m 0 min 0 min 0 W/m 12,9 km/h (3 Bft) 96,55 %
14.03.2021 05:10 4,0 C 3,3 C 2,3 C 89 % 1005,4 hPa 0,0 l/m 0 min 0 min 0 W/m 9,7 km/h (2 Bft) 97,14 %
14.03.2021 05:12 4,0 C 3,3 C 2,3 C 89 % 1005,4 hPa 0,0 l/m 0 min 0 min 0 W/m 38,6 km/h (5 Bft) 97,87 %
14.03.2021 05:14 4,0 C 3,3 C 2,3 C 89 % 1005,4 hPa 0,0 l/m 0 min 0 min 0 W/m 12,9 km/h (3 Bft) 97,87 %
14.03.2021 05:16 4,0 C 3,3 C 2,3 C 89 % 1005,5 hPa 0,0 l/m 0 min 0 min 0 W/m 16,1 km/h (3 Bft) 95,74 %
14.03.2021 05:18 4,0 C 3,3 C 2,3 C 89 % 1005,5 hPa 0,0 l/m 0 min 0 min 0 W/m 16,1 km/h (3 Bft) 97,87 %
14.03.2021 05:20 4,0 C 3,3 C 2,3 C 89 % 1005,4 hPa 0,0 l/m 0 min 0 min 0 W/m 19,3 km/h (3 Bft) 95,74 %
14.03.2021 05:22 4,0 C 3,3 C 2,3 C 89 % 1005,5 hPa 0,0 l/m 0 min 0 min 0 W/m 12,9 km/h (3 Bft) 97,83 %
14.03.2021 05:24 4,0 C 3,3 C 2,3 C 89 % 1005,5 hPa 0,0 l/m 0 min 0 min 0 W/m 9,7 km/h (2 Bft) 97,87 %
14.03.2021 05:26 3,9 C 3,3 C 2,3 C 89 % 1005,6 hPa 0,0 l/m 0 min 0 min 0 W/m 19,3 km/h (3 Bft) 97,87 %
14.03.2021 05:28 4,0 C 3,3 C 2,3 C 89 % 1005,6 hPa 0,0 l/m 0 min 0 min 0 W/m 16,1 km/h (3 Bft) 95,74 %
14.03.2021 05:30 3,9 C 3,3 C 2,3 C 89 % 1005,6 hPa 0,0 l/m 0 min 0 min 0 W/m 16,1 km/h (3 Bft) 97,87 %
14.03.2021 05:32 3,9 C 3,3 C 2,3 C 89 % 1005,7 hPa 0,0 l/m 0 min 0 min 0 W/m 12,9 km/h (3 Bft) 97,87 %
14.03.2021 05:34 3,9 C 3,3 C 2,3 C 89 % 1005,7 hPa 0,0 l/m 0 min 0 min 0 W/m 6,4 km/h (2 Bft) 97,83 %
14.03.2021 05:36 3,9 C 3,3 C 2,3 C 89 % 1005,8 hPa 0,0 l/m 0 min 0 min 0 W/m 6,4 km/h (2 Bft) 98,00 %
14.03.2021 05:38 3,9 C 3,3 C 2,3 C 89 % 1005,9 hPa 0,0 l/m 0 min 0 min 0 W/m 25,7 km/h (4 Bft) 97,87 %
14.03.2021 05:40 3,9 C 3,3 C 2,3 C 89 % 1005,7 hPa 0,0 l/m 0 min 0 min 0 W/m 6,4 km/h (2 Bft) 97,87 %
14.03.2021 05:42 3,9 C 3,3 C 2,3 C 89 % 1005,8 hPa 0,0 l/m 0 min 0 min 0 W/m 12,9 km/h (3 Bft) 95,74 %
14.03.2021 05:44 3,9 C 3,3 C 2,3 C 89 % 1005,8 hPa 0,0 l/m 0 min 0 min 0 W/m 12,9 km/h (3 Bft) 97,83 %
14.03.2021 05:46 3,9 C 3,3 C 2,3 C 89 % 1005,8 hPa 0,0 l/m 0 min 0 min 0 W/m 12,9 km/h (3 Bft) 100,00 %
14.03.2021 05:48 3,9 C 3,3 C 2,3 C 89 % 1005,9 hPa 0,0 l/m 0 min 0 min 0 W/m 16,1 km/h (3 Bft) 86,00 %
14.03.2021 05:50 3,9 C 3,3 C 2,3 C 89 % 1005,9 hPa 0,0 l/m 0 min 0 min 0 W/m 19,3 km/h (3 Bft) 71,74 %
14.03.2021 05:52 3,9 C 3,3 C 2,3 C 89 % 1005,9 hPa 0,0 l/m 0 min 0 min 0 W/m 12,9 km/h (3 Bft) 97,87 %
14.03.2021 05:54 3,9 C 3,3 C 2,3 C 89 % 1006,0 hPa 0,0 l/m 0 min 0 min 0 W/m 9,7 km/h (2 Bft) 100,00 %
14.03.2021 05:56 3,9 C 3,3 C 2,3 C 89 % 1006,0 hPa 0,0 l/m 0 min 0 min 0 W/m 22,5 km/h (4 Bft) 100,00 %
14.03.2021 05:58 3,9 C 3,3 C 2,3 C 89 % 1005,9 hPa 0,0 l/m 0 min 0 min 0 W/m 16,1 km/h (3 Bft) 100,00 %
14.03.2021 06:00 3,9 C 3,3 C 2,3 C 89 % 1006,0 hPa 0,0 l/m 0 min 0 min 0 W/m 9,7 km/h (2 Bft) 100,00 %
14.03.2021 06:02 3,9 C 3,3 C 2,3 C 89 % 1006,1 hPa 0,0 l/m 0 min 0 min 0 W/m 19,3 km/h (3 Bft) 95,74 %
14.03.2021 06:04 3,9 C 3,3 C 2,3 C 90 % 1006,1 hPa 0,0 l/m 0 min 0 min 0 W/m 12,9 km/h (3 Bft) 100,00 %
14.03.2021 06:08 3,9 C 3,3 C 2,3 C 90 % 1006,2 hPa 0,0 l/m 0 min 0 min 0 W/m 16,1 km/h (3 Bft) 98,95 %
14.03.2021 06:10 3,9 C 3,3 C 2,3 C 90 % 1006,2 hPa 0,0 l/m 0 min 0 min 0 W/m 16,1 km/h (3 Bft) 100,00 %
14.03.2021 06:12 3,9 C 3,3 C 2,3 C 90 % 1006,2 hPa 0,0 l/m 0 min 0 min 0 W/m 22,5 km/h (4 Bft) 100,00 %
14.03.2021 06:14 3,9 C 3,3 C 2,3 C 90 % 1006,2 hPa 0,0 l/m 0 min 0 min 0 W/m 16,1 km/h (3 Bft) 100,00 %
14.03.2021 06:16 3,9 C 3,3 C 2,3 C 90 % 1006,2 hPa 0,0 l/m 0 min 0 min 0 W/m 12,9 km/h (3 Bft) 100,00 %
14.03.2021 06:18 3,9 C 3,3 C 2,3 C 90 % 1006,2 hPa 0,0 l/m 0 min 0 min 0 W/m 12,9 km/h (3 Bft) 100,00 %
14.03.2021 06:20 3,8 C 3,3 C 2,3 C 90 % 1006,2 hPa 0,0 l/m 0 min 0 min 0 W/m 12,9 km/h (3 Bft) 100,00 %
14.03.2021 06:22 3,8 C 3,3 C 2,3 C 90 % 1006,3 hPa 0,0 l/m 0 min 0 min 0 W/m 9,7 km/h (2 Bft) 100,00 %
14.03.2021 06:24 3,8 C 3,3 C 2,3 C 90 % 1006,3 hPa 0,0 l/m 0 min 0 min 0 W/m 16,1 km/h (3 Bft) 100,00 %
14.03.2021 06:26 3,7 C 3,3 C 2,3 C 90 % 1006,4 hPa 0,0 l/m 0 min 0 min 0 W/m 6,4 km/h (2 Bft) 100,00 %
14.03.2021 06:28 3,7 C 2,8 C 2,3 C 90 % 1006,4 hPa 0,0 l/m 0 min 0 min 0 W/m 12,9 km/h (3 Bft) 100,00 %
14.03.2021 06:30 3,7 C 2,8 C 2,3 C 90 % 1006,4 hPa 0,0 l/m 0 min 0 min 0 W/m 12,9 km/h (3 Bft) 100,00 %
14.03.2021 06:32 3,6 C 2,8 C 2,3 C 90 % 1006,5 hPa 0,0 l/m 0 min 0 min 0 W/m 12,9 km/h (3 Bft) 100,00 %
14.03.2021 06:34 3,6 C 2,8 C 2,3 C 90 % 1006,5 hPa 0,0 l/m 0 min 0 min 0 W/m 19,3 km/h (3 Bft) 97,87 %
14.03.2021 06:36 3,6 C 2,8 C 2,3 C 90 % 1006,5 hPa 0,0 l/m 0 min 0 min 0 W/m 19,3 km/h (3 Bft) 97,87 %
14.03.2021 06:38 3,5 C 2,8 C 2,3 C 90 % 1006,5 hPa 0,0 l/m 0 min 0 min 0 W/m 16,1 km/h (3 Bft) 100,00 %
14.03.2021 06:40 3,5 C 2,8 C 2,3 C 90 % 1006,6 hPa 0,0 l/m 0 min 0 min 0 W/m 25,7 km/h (4 Bft) 97,87 %
14.03.2021 06:42 3,5 C 2,8 C 2,3 C 90 % 1006,5 hPa 0,0 l/m 0 min 0 min 0 W/m 12,9 km/h (3 Bft) 97,83 %
14.03.2021 06:44 3,5 C 2,8 C 2,3 C 90 % 1006,6 hPa 0,0 l/m 0 min 0 min 0 W/m 16,1 km/h (3 Bft) 93,62 %
14.03.2021 06:46 3,5 C 2,8 C 2,3 C 90 % 1006,6 hPa 0,0 l/m 0 min 0 min 0 W/m 19,3 km/h (3 Bft) 93,62 %
14.03.2021 06:48 3,5 C 2,8 C 2,3 C 90 % 1006,6 hPa 0,0 l/m 0 min 0 min 0 W/m 19,3 km/h (3 Bft) 95,74 %
14.03.2021 06:50 3,5 C 2,8 C 2,3 C 90 % 1006,7 hPa 0,0 l/m 0 min 0 min 5 W/m 12,9 km/h (3 Bft) 95,74 %
14.03.2021 06:52 3,5 C 2,8 C 2,3 C 90 % 1006,7 hPa 0,0 l/m 0 min 0 min 8 W/m 12,9 km/h (3 Bft) 95,74 %
14.03.2021 06:54 3,5 C 2,8 C 2,3 C 90 % 1006,7 hPa 0,0 l/m 0 min 0 min 11 W/m 12,9 km/h (3 Bft) 91,30 %
14.03.2021 06:56 3,5 C 2,8 C 2,3 C 90 % 1006,8 hPa 0,0 l/m 0 min 0 min 13 W/m 6,4 km/h (2 Bft) 93,62 %
14.03.2021 06:58 3,5 C 2,8 C 2,3 C 90 % 1006,8 hPa 0,0 l/m 0 min 0 min 16 W/m 19,3 km/h (3 Bft) 95,74 %
14.03.2021 07:00 3,5 C 2,8 C 2,3 C 90 % 1006,8 hPa 0,0 l/m 0 min 0 min 18 W/m 12,9 km/h (3 Bft) 95,74 %
14.03.2021 07:02 3,5 C 2,8 C 2,3 C 90 % 1006,8 hPa 0,0 l/m 0 min 0 min 19 W/m 12,9 km/h (3 Bft) 93,62 %
14.03.2021 07:04 3,5 C 2,8 C 2,3 C 90 % 1006,8 hPa 0,0 l/m 2 min 0 min 21 W/m 22,5 km/h (4 Bft) 95,74 %
14.03.2021 07:06 3,5 C 3,3 C 2,3 C 90 % 1006,8 hPa 0,0 l/m 2 min 0 min 21 W/m 9,7 km/h (2 Bft) 95,65 %
14.03.2021 07:08 3,5 C 3,3 C 2,3 C 90 % 1006,9 hPa 0,0 l/m 2 min 0 min 23 W/m 9,7 km/h (2 Bft) 93,62 %
14.03.2021 07:10 3,5 C 3,3 C 2,3 C 90 % 1006,9 hPa 0,0 l/m 2 min 0 min 24 W/m 16,1 km/h (3 Bft) 93,62 %
14.03.2021 07:12 3,5 C 3,3 C 2,3 C 90 % 1006,9 hPa 0,0 l/m 2 min 0 min 27 W/m 12,9 km/h (3 Bft) 97,87 %
14.03.2021 07:14 3,5 C 3,3 C 2,3 C 90 % 1006,9 hPa 0,0 l/m 2 min 0 min 31 W/m 16,1 km/h (3 Bft) 95,74 %
14.03.2021 07:16 3,5 C 3,3 C 2,3 C 90 % 1006,9 hPa 0,0 l/m 2 min 0 min 32 W/m 12,9 km/h (3 Bft) 91,30 %
14.03.2021 07:18 3,5 C 3,3 C 2,3 C 90 % 1006,9 hPa 0,0 l/m 0 min 0 min 29 W/m 9,7 km/h (2 Bft) 89,36 %
14.03.2021 07:20 3,5 C 3,3 C 2,3 C 90 % 1007,0 hPa 0,0 l/m 0 min 0 min 26 W/m 19,3 km/h (3 Bft) 91,49 %
14.03.2021 07:22 3,5 C 3,3 C 2,3 C 90 % 1007,0 hPa 0,0 l/m 0 min 0 min 27 W/m 6,4 km/h (2 Bft) 89,36 %
14.03.2021 07:24 3,5 C 3,3 C 2,3 C 90 % 1007,0 hPa 0,0 l/m 0 min 0 min 31 W/m 19,3 km/h (3 Bft) 97,87 %
14.03.2021 07:26 3,5 C 3,3 C 2,3 C 90 % 1007,0 hPa 0,0 l/m 0 min 0 min 33 W/m 12,9 km/h (3 Bft) 97,87 %
14.03.2021 07:28 3,5 C 3,3 C 2,3 C 90 % 1007,0 hPa 0,0 l/m 0 min 0 min 33 W/m 16,1 km/h (3 Bft) 97,83 %
14.03.2021 07:30 3,6 C 3,3 C 2,3 C 90 % 1007,1 hPa 0,0 l/m 0 min 0 min 32 W/m 12,9 km/h (3 Bft) 95,74 %
14.03.2021 07:32 3,6 C 3,3 C 2,3 C 90 % 1007,2 hPa 0,0 l/m 0 min 0 min 30 W/m 16,1 km/h (3 Bft) 95,74 %
14.03.2021 07:34 3,6 C 3,3 C 2,3 C 90 % 1007,2 hPa 0,0 l/m 0 min 0 min 32 W/m 12,9 km/h (3 Bft) 93,62 %
14.03.2021 07:36 3,6 C 3,3 C 2,3 C 90 % 1007,2 hPa 0,0 l/m 0 min 0 min 34 W/m 9,7 km/h (2 Bft) 95,74 %
14.03.2021 07:38 3,6 C 3,3 C 2,3 C 90 % 1007,3 hPa 0,0 l/m 0 min 0 min 38 W/m 12,9 km/h (3 Bft) 97,87 %
14.03.2021 07:40 3,6 C 3,3 C 2,3 C 90 % 1007,3 hPa 0,0 l/m 0 min 0 min 42 W/m 9,7 km/h (2 Bft) 97,83 %
14.03.2021 07:42 3,6 C 3,3 C 2,8 C 90 % 1007,3 hPa 0,0 l/m 0 min 0 min 44 W/m 16,1 km/h (3 Bft) 97,87 %
14.03.2021 07:44 3,6 C 3,3 C 2,8 C 90 % 1007,5 hPa 0,0 l/m 0 min 0 min 49 W/m 12,9 km/h (3 Bft) 95,74 %
14.03.2021 07:46 3,6 C 3,3 C 2,8 C 90 % 1007,4 hPa 0,0 l/m 0 min 0 min 56 W/m 19,3 km/h (3 Bft) 95,74 %
14.03.2021 07:48 3,6 C 3,3 C 2,8 C 90 % 1007,4 hPa 0,0 l/m 0 min 0 min 63 W/m 16,1 km/h (3 Bft) 95,74 %
14.03.2021 07:50 3,7 C 3,3 C 2,8 C 90 % 1007,5 hPa 0,0 l/m 0 min 0 min 68 W/m 19,3 km/h (3 Bft) 95,74 %
14.03.2021 07:52 3,7 C 3,3 C 2,8 C 90 % 1007,5 hPa 0,0 l/m 0 min 0 min 71 W/m 19,3 km/h (3 Bft) 86,96 %
14.03.2021 07:54 3,8 C 3,9 C 2,8 C 90 % 1007,6 hPa 0,0 l/m 0 min 0 min 70 W/m 16,1 km/h (3 Bft) 95,74 %
14.03.2021 07:56 3,8 C 3,9 C 2,8 C 90 % 1007,6 hPa 0,0 l/m 0 min 0 min 64 W/m 16,1 km/h (3 Bft) 95,74 %
14.03.2021 07:58 3,8 C 3,9 C 2,8 C 90 % 1007,6 hPa 0,0 l/m 0 min 2 min 55 W/m 12,9 km/h (3 Bft) 93,62 %
14.03.2021 08:00 3,8 C 3,9 C 2,8 C 90 % 1007,7 hPa 0,0 l/m 0 min 2 min 48 W/m 12,9 km/h (3 Bft) 91,49 %
14.03.2021 08:02 3,9 C 3,9 C 2,8 C 90 % 1007,8 hPa 0,0 l/m 0 min 2 min 50 W/m 16,1 km/h (3 Bft) 95,74 %
14.03.2021 08:04 3,9 C 3,9 C 2,3 C 90 % 1007,8 hPa 0,0 l/m 0 min 2 min 65 W/m 16,1 km/h (3 Bft) 95,65 %
14.03.2021 08:06 3,9 C 3,9 C 2,3 C 90 % 1007,9 hPa 0,0 l/m 0 min 2 min 70 W/m 19,3 km/h (3 Bft) 95,74 %
14.03.2021 08:08 3,9 C 3,9 C 2,3 C 90 % 1007,9 hPa 0,0 l/m 0 min 2 min 77 W/m 6,4 km/h (2 Bft) 95,74 %
14.03.2021 08:10 3,9 C 3,9 C 2,3 C 90 % 1008,0 hPa 0,0 l/m 0 min 2 min 76 W/m 19,3 km/h (3 Bft) 95,74 %
14.03.2021 08:12 3,9 C 3,9 C 2,3 C 90 % 1008,0 hPa 0,0 l/m 0 min 2 min 45 W/m 12,9 km/h (3 Bft) 95,74 %
14.03.2021 08:14 3,9 C 3,3 C 2,3 C 90 % 1008,1 hPa 0,0 l/m 0 min 2 min 25 W/m 12,9 km/h (3 Bft) 95,74 %
14.03.2021 08:16 3,9 C 3,3 C 2,3 C 90 % 1008,1 hPa 0,0 l/m 0 min 2 min 18 W/m 12,9 km/h (3 Bft) 95,65 %
14.03.2021 08:18 3,9 C 3,3 C 2,3 C 90 % 1008,2 hPa 0,2 l/m 0 min 2 min 16 W/m 9,7 km/h (2 Bft) 93,62 %
14.03.2021 08:20 3,9 C 3,3 C 2,3 C 91 % 1008,2 hPa 0,0 l/m 0 min 2 min 12 W/m 12,9 km/h (3 Bft) 95,74 %
14.03.2021 08:22 3,8 C 3,3 C 2,3 C 91 % 1008,2 hPa 0,0 l/m 0 min 2 min 14 W/m 12,9 km/h (3 Bft) 93,62 %
14.03.2021 08:24 3,8 C 3,3 C 2,3 C 91 % 1008,3 hPa 0,2 l/m 0 min 2 min 13 W/m 16,1 km/h (3 Bft) 95,74 %
14.03.2021 08:26 3,7 C 2,8 C 1,7 C 91 % 1008,3 hPa 0,0 l/m 0 min 2 min 14 W/m 9,7 km/h (2 Bft) 97,22 %
14.03.2021 08:28 3,6 C 2,8 C 1,7 C 91 % 1008,3 hPa 0,0 l/m 0 min 2 min 16 W/m 6,4 km/h (2 Bft) 95,74 %
14.03.2021 08:30 3,6 C 2,8 C 1,7 C 92 % 1008,3 hPa 0,0 l/m 0 min 2 min 13 W/m 12,9 km/h (3 Bft) 97,87 %
14.03.2021 08:32 3,6 C 2,8 C 1,7 C 92 % 1008,3 hPa 0,0 l/m 0 min 0 min 12 W/m 6,4 km/h (2 Bft) 97,87 %
14.03.2021 08:34 3,6 C 2,8 C 1,7 C 92 % 1008,3 hPa 0,0 l/m 0 min 0 min 13 W/m 6,4 km/h (2 Bft) 97,83 %
14.03.2021 08:36 3,6 C 2,8 C 1,7 C 92 % 1008,3 hPa 0,0 l/m 0 min 0 min 16 W/m 6,4 km/h (2 Bft) 97,87 %
14.03.2021 08:38 3,6 C 2,8 C 1,7 C 92 % 1008,4 hPa 0,0 l/m 0 min 2 min 14 W/m 19,3 km/h (3 Bft) 97,87 %
14.03.2021 08:40 3,6 C 2,8 C 1,7 C 93 % 1008,4 hPa 0,0 l/m 0 min 2 min 11 W/m 12,9 km/h (3 Bft) 97,87 %
14.03.2021 08:42 3,5 C 2,8 C 1,7 C 93 % 1008,5 hPa 0,2 l/m 0 min 2 min 15 W/m 16,1 km/h (3 Bft) 100,00 %
14.03.2021 08:44 3,5 C 2,8 C 1,7 C 93 % 1008,4 hPa 0,0 l/m 0 min 2 min 15 W/m 12,9 km/h (3 Bft) 95,74 %
14.03.2021 08:46 3,5 C 2,8 C 1,7 C 93 % 1008,5 hPa 0,0 l/m 0 min 2 min 16 W/m 16,1 km/h (3 Bft) 100,00 %
14.03.2021 08:48 3,5 C 2,8 C 1,7 C 93 % 1008,5 hPa 0,0 l/m 0 min 2 min 22 W/m 12,9 km/h (3 Bft) 100,00 %
14.03.2021 08:50 3,5 C 2,8 C 1,7 C 93 % 1008,5 hPa 0,0 l/m 0 min 2 min 33 W/m 12,9 km/h (3 Bft) 100,00 %
14.03.2021 08:52 3,5 C 3,3 C 2,3 C 93 % 1008,6 hPa 0,0 l/m 0 min 2 min 40 W/m 16,1 km/h (3 Bft) 97,87 %
14.03.2021 08:54 3,6 C 3,3 C 2,3 C 93 % 1008,6 hPa 0,0 l/m 0 min 2 min 42 W/m 16,1 km/h (3 Bft) 97,87 %
14.03.2021 08:56 3,6 C 3,3 C 2,3 C 93 % 1008,6 hPa 0,0 l/m 0 min 2 min 52 W/m 19,3 km/h (3 Bft) 100,00 %
14.03.2021 08:58 3,6 C 3,3 C 2,3 C 93 % 1008,6 hPa 0,0 l/m 0 min 2 min 67 W/m 16,1 km/h (3 Bft) 100,00 %
14.03.2021 09:00 3,6 C 3,3 C 2,3 C 93 % 1008,7 hPa 0,0 l/m 0 min 2 min 89 W/m 19,3 km/h (3 Bft) 100,00 %
14.03.2021 09:02 3,6 C 3,3 C 2,3 C 93 % 1008,7 hPa 0,0 l/m 0 min 2 min 85 W/m 19,3 km/h (3 Bft) 97,87 %
14.03.2021 09:04 3,6 C 3,3 C 2,3 C 93 % 1008,7 hPa 0,0 l/m 0 min 2 min 97 W/m 12,9 km/h (3 Bft) 97,87 %
14.03.2021 09:06 3,6 C 3,3 C 2,3 C 93 % 1008,7 hPa 0,0 l/m 0 min 2 min 119 W/m 9,7 km/h (2 Bft) 100,00 %
14.03.2021 09:08 3,7 C 3,3 C 2,3 C 93 % 1008,7 hPa 0,0 l/m 0 min 2 min 148 W/m 6,4 km/h (2 Bft) 100,00 %
14.03.2021 09:10 3,8 C 3,9 C 2,8 C 94 % 1008,7 hPa 0,0 l/m 0 min 2 min 164 W/m 22,5 km/h (4 Bft) 100,00 %
14.03.2021 09:12 3,8 C 3,9 C 2,8 C 94 % 1008,8 hPa 0,0 l/m 0 min 2 min 144 W/m 12,9 km/h (3 Bft) 97,87 %
14.03.2021 09:14 3,9 C 3,9 C 2,8 C 94 % 1008,8 hPa 0,0 l/m 0 min 2 min 137 W/m 9,7 km/h (2 Bft) 97,87 %
14.03.2021 09:16 3,9 C 3,9 C 2,8 C 94 % 1008,8 hPa 0,0 l/m 0 min 2 min 140 W/m 9,7 km/h (2 Bft) 95,74 %
14.03.2021 09:18 3,9 C 3,9 C 2,8 C 94 % 1008,8 hPa 0,0 l/m 0 min 2 min 126 W/m 19,3 km/h (3 Bft) 95,74 %
14.03.2021 09:20 4,0 C 3,9 C 2,8 C 94 % 1008,8 hPa 0,0 l/m 0 min 2 min 85 W/m 6,4 km/h (2 Bft) 95,65 %
14.03.2021 09:22 4,0 C 3,9 C 2,8 C 94 % 1008,9 hPa 0,0 l/m 0 min 2 min 69 W/m 6,4 km/h (2 Bft) 97,87 %
14.03.2021 09:24 4,0 C 3,9 C 2,8 C 94 % 1009,0 hPa 0,0 l/m 0 min 2 min 57 W/m 16,1 km/h (3 Bft) 97,87 %
14.03.2021 09:26 4,0 C 3,9 C 2,8 C 94 % 1009,0 hPa 0,2 l/m 0 min 2 min 49 W/m 6,4 km/h (2 Bft) 97,87 %
14.03.2021 09:28 4,0 C 3,3 C 2,8 C 94 % 1009,0 hPa 0,0 l/m 0 min 2 min 45 W/m 3,2 km/h (1 Bft) 97,87 %
14.03.2021 09:30 4,0 C 3,3 C 2,8 C 94 % 1009,1 hPa 0,0 l/m 0 min 2 min 37 W/m 12,9 km/h (3 Bft) 97,87 %
14.03.2021 09:32 4,0 C 3,3 C 2,8 C 94 % 1009,1 hPa 0,2 l/m 0 min 2 min 30 W/m 6,4 km/h (2 Bft) 97,83 %
14.03.2021 09:34 4,0 C 3,3 C 2,8 C 94 % 1009,1 hPa 0,0 l/m 0 min 2 min 19 W/m 6,4 km/h (2 Bft) 97,87 %
14.03.2021 09:36 4,0 C 3,3 C 2,8 C 94 % 1009,2 hPa 0,0 l/m 0 min 2 min 16 W/m 6,4 km/h (2 Bft) 97,87 %
14.03.2021 09:38 4,0 C 3,3 C 2,8 C 94 % 1009,2 hPa 0,0 l/m 0 min 2 min 20 W/m 16,1 km/h (3 Bft) 95,74 %
14.03.2021 09:40 4,0 C 3,3 C 2,8 C 94 % 1009,2 hPa 0,0 l/m 0 min 2 min 28 W/m 12,9 km/h (3 Bft) 93,62 %
14.03.2021 09:42 4,0 C 3,3 C 2,8 C 94 % 1009,3 hPa 0,0 l/m 0 min 2 min 35 W/m 9,7 km/h (2 Bft) 100,00 %
14.03.2021 09:44 4,0 C 3,3 C 2,8 C 94 % 1009,3 hPa 0,2 l/m 0 min 2 min 36 W/m 3,2 km/h (1 Bft) 100,00 %
14.03.2021 09:46 4,0 C 3,3 C 2,3 C 94 % 1009,3 hPa 0,0 l/m 0 min 2 min 32 W/m 9,7 km/h (2 Bft) 97,87 %
14.03.2021 09:48 4,0 C 3,3 C 2,3 C 94 % 1009,3 hPa 0,0 l/m 0 min 2 min 27 W/m 9,7 km/h (2 Bft) 95,74 %
14.03.2021 09:50 4,0 C 3,3 C 2,3 C 94 % 1009,3 hPa 0,2 l/m 0 min 2 min 30 W/m 6,4 km/h (2 Bft) 97,87 %
14.03.2021 09:52 3,9 C 3,3 C 2,3 C 94 % 1009,4 hPa 0,0 l/m 0 min 2 min 34 W/m 6,4 km/h (2 Bft) 100,00 %
14.03.2021 09:54 3,9 C 3,3 C 2,8 C 94 % 1009,3 hPa 0,0 l/m 0 min 2 min 34 W/m 12,9 km/h (3 Bft) 97,87 %
14.03.2021 09:56 3,9 C 3,3 C 2,8 C 94 % 1009,4 hPa 0,0 l/m 0 min 2 min 36 W/m 9,7 km/h (2 Bft) 100,00 %
14.03.2021 09:58 3,9 C 3,3 C 2,8 C 94 % 1009,4 hPa 0,0 l/m 0 min 2 min 40 W/m 6,4 km/h (2 Bft) 100,00 %
14.03.2021 10:00 4,0 C 3,3 C 2,8 C 95 % 1009,5 hPa 0,2 l/m 0 min 2 min 37 W/m 9,7 km/h (2 Bft) 100,00 %
14.03.2021 10:02 4,0 C 3,3 C 2,8 C 94 % 1009,5 hPa 0,0 l/m 0 min 2 min 39 W/m 6,4 km/h (2 Bft) 100,00 %
14.03.2021 10:04 4,0 C 3,3 C 2,8 C 94 % 1009,5 hPa 0,0 l/m 0 min 2 min 56 W/m 16,1 km/h (3 Bft) 100,00 %
14.03.2021 10:06 4,0 C 3,3 C 2,8 C 94 % 1009,5 hPa 0,0 l/m 0 min 2 min 84 W/m 6,4 km/h (2 Bft) 100,00 %
14.03.2021 10:08 4,0 C 3,9 C 2,8 C 95 % 1009,5 hPa 0,0 l/m 0 min 0 min 119 W/m 12,9 km/h (3 Bft) 97,83 %
14.03.2021 10:10 4,1 C 3,9 C 2,8 C 95 % 1009,6 hPa 0,0 l/m 0 min 0 min 167 W/m 6,4 km/h (2 Bft) 100,00 %
14.03.2021 10:12 4,1 C 3,9 C 3,4 C 95 % 1009,6 hPa 0,0 l/m 0 min 2 min 170 W/m 6,4 km/h (2 Bft) 97,87 %
14.03.2021 10:14 4,2 C 3,9 C 3,4 C 95 % 1009,7 hPa 0,0 l/m 0 min 2 min 128 W/m 12,9 km/h (3 Bft) 100,00 %
14.03.2021 10:16 4,3 C 3,9 C 3,4 C 95 % 1009,7 hPa 0,0 l/m 0 min 2 min 140 W/m 6,4 km/h (2 Bft) 100,00 %
14.03.2021 10:18 4,3 C 4,4 C 3,4 C 95 % 1009,7 hPa 0,0 l/m 0 min 2 min 196 W/m 16,1 km/h (3 Bft) 100,00 %
14.03.2021 10:20 4,4 C 4,4 C 3,4 C 95 % 1009,8 hPa 0,0 l/m 2 min 2 min 240 W/m 12,9 km/h (3 Bft) 97,83 %
14.03.2021 10:22 4,4 C 4,4 C 3,4 C 95 % 1009,8 hPa 0,0 l/m 0 min 2 min 184 W/m 6,4 km/h (2 Bft) 100,00 %
14.03.2021 10:24 4,5 C 4,4 C 3,4 C 95 % 1009,8 hPa 0,0 l/m 0 min 2 min 190 W/m 12,9 km/h (3 Bft) 100,00 %
14.03.2021 10:26 4,5 C 5,0 C 3,4 C 95 % 1009,7 hPa 0,0 l/m 0 min 2 min 212 W/m 6,4 km/h (2 Bft) 100,00 %
14.03.2021 10:28 4,6 C 5,0 C 3,9 C 95 % 1009,8 hPa 0,0 l/m 2 min 2 min 256 W/m 12,9 km/h (3 Bft) 100,00 %
14.03.2021 10:30 4,6 C 5,0 C 3,9 C 95 % 1009,8 hPa 0,0 l/m 2 min 2 min 270 W/m 16,1 km/h (3 Bft) 100,00 %
14.03.2021 10:32 4,8 C 5,6 C 3,9 C 95 % 1009,8 hPa 0,0 l/m 2 min 2 min 258 W/m 6,4 km/h (2 Bft) 100,00 %
14.03.2021 10:34 4,9 C 5,0 C 3,9 C 95 % 1009,9 hPa 0,0 l/m 0 min 2 min 195 W/m 12,9 km/h (3 Bft) 100,00 %
14.03.2021 10:36 4,9 C 5,0 C 3,9 C 95 % 1009,9 hPa 0,0 l/m 0 min 2 min 150 W/m 22,5 km/h (4 Bft) 97,87 %
14.03.2021 10:38 4,9 C 5,0 C 3,9 C 95 % 1010,0 hPa 0,0 l/m 0 min 2 min 146 W/m 19,3 km/h (3 Bft) 98,31 %
14.03.2021 10:40 4,9 C 5,0 C 3,9 C 95 % 1010,0 hPa 0,0 l/m 0 min 2 min 110 W/m 6,4 km/h (2 Bft) 100,00 %
14.03.2021 10:42 4,9 C 5,0 C 3,9 C 95 % 1010,0 hPa 0,0 l/m 0 min 0 min 89 W/m 6,4 km/h (2 Bft) 100,00 %
14.03.2021 10:44 4,9 C 4,4 C 3,9 C 95 % 1010,1 hPa 0,0 l/m 0 min 2 min 96 W/m 16,1 km/h (3 Bft) 100,00 %
14.03.2021 10:46 4,9 C 4,4 C 3,9 C 95 % 1010,1 hPa 0,0 l/m 0 min 2 min 99 W/m 9,7 km/h (2 Bft) 97,87 %
14.03.2021 10:48 4,9 C 4,4 C 3,9 C 94 % 1010,1 hPa 0,0 l/m 0 min 2 min 85 W/m 12,9 km/h (3 Bft) 97,87 %
14.03.2021 10:50 4,9 C 4,4 C 3,4 C 94 % 1010,1 hPa 0,0 l/m 0 min 2 min 82 W/m 16,1 km/h (3 Bft) 97,87 %
14.03.2021 10:52 4,9 C 4,4 C 3,4 C 94 % 1010,2 hPa 0,0 l/m 0 min 2 min 74 W/m 6,4 km/h (2 Bft) 93,62 %
14.03.2021 10:54 4,9 C 4,4 C 3,4 C 94 % 1010,3 hPa 0,0 l/m 0 min 0 min 53 W/m 6,4 km/h (2 Bft) 59,09 %
14.03.2021 10:56 4,9 C 4,4 C 3,4 C 94 % 1010,3 hPa 0,0 l/m 0 min 2 min 23 W/m 6,4 km/h (2 Bft) 97,83 %
14.03.2021 10:58 4,9 C 4,4 C 3,4 C 94 % 1010,3 hPa 0,2 l/m 0 min 2 min 20 W/m 6,4 km/h (2 Bft) 93,62 %
14.03.2021 11:00 4,8 C 3,9 C 3,4 C 94 % 1010,3 hPa 0,0 l/m 0 min 2 min 29 W/m 19,3 km/h (3 Bft) 97,87 %
14.03.2021 11:02 4,8 C 3,9 C 3,4 C 94 % 1010,3 hPa 0,0 l/m 0 min 2 min 39 W/m 16,1 km/h (3 Bft) 97,87 %
14.03.2021 11:04 4,7 C 3,9 C 3,4 C 94 % 1010,4 hPa 0,0 l/m 0 min 2 min 33 W/m 12,9 km/h (3 Bft) 97,87 %
14.03.2021 11:06 4,7 C 3,9 C 3,4 C 94 % 1010,4 hPa 0,0 l/m 0 min 0 min 26 W/m 6,4 km/h (2 Bft) 100,00 %
14.03.2021 11:08 4,6 C 3,9 C 3,4 C 94 % 1010,4 hPa 0,0 l/m 0 min 2 min 22 W/m 12,9 km/h (3 Bft) 98,28 %
14.03.2021 11:10 4,6 C 3,9 C 3,4 C 94 % 1010,4 hPa 0,0 l/m 0 min 2 min 43 W/m 12,9 km/h (3 Bft) 97,14 %
14.03.2021 11:12 4,6 C 3,9 C 3,4 C 94 % 1010,4 hPa 0,0 l/m 0 min 0 min 78 W/m 16,1 km/h (3 Bft) 97,87 %
14.03.2021 11:14 4,6 C 4,4 C 3,4 C 94 % 1010,4 hPa 0,2 l/m 0 min 0 min 105 W/m 12,9 km/h (3 Bft) 97,87 %
14.03.2021 11:16 4,6 C 4,4 C 3,9 C 94 % 1010,3 hPa 0,0 l/m 0 min 2 min 162 W/m 9,7 km/h (2 Bft) 93,62 %
14.03.2021 11:18 4,7 C 5,0 C 4,5 C 95 % 1010,4 hPa 0,0 l/m 2 min 0 min 291 W/m 16,1 km/h (3 Bft) 97,83 %
14.03.2021 11:20 4,8 C 5,6 C 4,5 C 95 % 1010,3 hPa 0,0 l/m 2 min 0 min 283 W/m 12,9 km/h (3 Bft) 97,87 %
14.03.2021 11:22 4,9 C 7,2 C 6,1 C 95 % 1010,4 hPa 0,0 l/m 2 min 0 min 357 W/m 16,1 km/h (3 Bft) 95,74 %
14.03.2021 11:24 5,0 C 7,8 C 6,1 C 95 % 1010,4 hPa 0,0 l/m 2 min 2 min 475 W/m 16,1 km/h (3 Bft) 97,87 %
14.03.2021 11:26 5,1 C 7,8 C 6,1 C 95 % 1010,5 hPa 0,0 l/m 2 min 2 min 366 W/m 12,9 km/h (3 Bft) 95,74 %
14.03.2021 11:28 5,3 C 7,2 C 6,1 C 95 % 1010,5 hPa 0,0 l/m 2 min 0 min 348 W/m 12,9 km/h (3 Bft) 97,87 %
14.03.2021 11:30 5,4 C 7,2 C 6,1 C 95 % 1010,5 hPa 0,0 l/m 2 min 0 min 359 W/m 19,3 km/h (3 Bft) 95,65 %
14.03.2021 11:32 5,5 C 8,3 C 6,7 C 95 % 1010,5 hPa 0,0 l/m 2 min 0 min 426 W/m 25,7 km/h (4 Bft) 97,87 %
14.03.2021 11:34 5,6 C 8,3 C 6,7 C 95 % 1010,5 hPa 0,0 l/m 2 min 0 min 759 W/m 19,3 km/h (3 Bft) 95,74 %
14.03.2021 11:36 5,7 C 7,2 C 6,1 C 95 % 1010,5 hPa 0,0 l/m 2 min 0 min 335 W/m 16,1 km/h (3 Bft) 97,87 %
14.03.2021 11:38 5,7 C 6,7 C 5,6 C 95 % 1010,5 hPa 0,0 l/m 0 min 0 min 251 W/m 19,3 km/h (3 Bft) 98,31 %
14.03.2021 11:40 5,7 C 6,1 C 5,0 C 94 % 1010,5 hPa 0,0 l/m 0 min 0 min 229 W/m 12,9 km/h (3 Bft) 100,00 %
14.03.2021 11:42 5,7 C 6,7 C 5,6 C 94 % 1010,5 hPa 0,0 l/m 0 min 0 min 282 W/m 12,9 km/h (3 Bft) 100,00 %
14.03.2021 11:44 5,8 C 8,3 C 7,3 C 94 % 1010,6 hPa 0,0 l/m 2 min 0 min 468 W/m 22,5 km/h (4 Bft) 100,00 %
14.03.2021 11:46 5,9 C 8,9 C 7,3 C 94 % 1010,6 hPa 0,0 l/m 2 min 0 min 506 W/m 12,9 km/h (3 Bft) 100,00 %
14.03.2021 11:48 6,0 C 7,8 C 6,1 C 94 % 1010,7 hPa 0,0 l/m 2 min 0 min 390 W/m 12,9 km/h (3 Bft) 97,87 %
14.03.2021 11:50 6,0 C 7,8 C 6,1 C 94 % 1010,7 hPa 0,0 l/m 2 min 0 min 391 W/m 9,7 km/h (2 Bft) 100,00 %
14.03.2021 11:52 6,1 C 7,8 C 6,1 C 94 % 1010,8 hPa 0,0 l/m 2 min 0 min 422 W/m 16,1 km/h (3 Bft) 97,87 %
14.03.2021 11:54 6,2 C 8,9 C 7,3 C 93 % 1010,7 hPa 0,0 l/m 2 min 0 min 421 W/m 9,7 km/h (2 Bft) 97,83 %
14.03.2021 11:56 6,4 C 11,1 C 8,4 C 94 % 1010,7 hPa 0,0 l/m 2 min 0 min 678 W/m 12,9 km/h (3 Bft) 95,74 %
14.03.2021 11:58 6,5 C 11,7 C 8,9 C 94 % 1010,7 hPa 0,0 l/m 2 min 0 min 745 W/m 12,9 km/h (3 Bft) 93,62 %
14.03.2021 12:00 6,7 C 11,7 C 8,4 C 94 % 1010,7 hPa 0,0 l/m 2 min 0 min 809 W/m 16,1 km/h (3 Bft) 97,87 %
14.03.2021 12:02 6,8 C 10,6 C 7,8 C 93 % 1010,7 hPa 0,0 l/m 2 min 0 min 810 W/m 22,5 km/h (4 Bft) 95,74 %
14.03.2021 12:04 6,8 C 9,4 C 7,3 C 92 % 1010,8 hPa 0,0 l/m 2 min 0 min 567 W/m 22,5 km/h (4 Bft) 97,87 %
14.03.2021 12:08 6,9 C 8,9 C 6,7 C 92 % 1010,8 hPa 0,0 l/m 4 min 0 min 331 W/m 12,9 km/h (3 Bft) 97,85 %
14.03.2021 12:10 7,0 C 8,3 C 7,3 C 92 % 1010,9 hPa 0,0 l/m 2 min 0 min 407 W/m 9,7 km/h (2 Bft) 95,74 %
14.03.2021 12:12 7,0 C 8,3 C 6,7 C 91 % 1011,0 hPa 0,0 l/m 2 min 0 min 427 W/m 19,3 km/h (3 Bft) 97,87 %
14.03.2021 12:14 7,0 C 8,3 C 6,7 C 91 % 1011,0 hPa 0,0 l/m 2 min 0 min 405 W/m 12,9 km/h (3 Bft) 97,87 %
14.03.2021 12:16 7,0 C 7,8 C 6,1 C 91 % 1011,0 hPa 0,0 l/m 0 min 0 min 212 W/m 9,7 km/h (2 Bft) 97,87 %
14.03.2021 12:18 6,9 C 7,2 C 6,1 C 91 % 1011,0 hPa 0,0 l/m 0 min 0 min 169 W/m 16,1 km/h (3 Bft) 95,65 %
14.03.2021 12:20 6,9 C 7,2 C 6,1 C 90 % 1011,1 hPa 0,0 l/m 0 min 0 min 215 W/m 12,9 km/h (3 Bft) 97,87 %
14.03.2021 12:22 6,9 C 6,7 C 5,6 C 90 % 1011,0 hPa 0,0 l/m 0 min 0 min 207 W/m 6,4 km/h (2 Bft) 97,87 %
14.03.2021 12:24 6,9 C 6,7 C 5,6 C 90 % 1011,0 hPa 0,0 l/m 0 min 0 min 177 W/m 9,7 km/h (2 Bft) 97,87 %
14.03.2021 12:26 6,9 C 6,7 C 5,6 C 90 % 1011,0 hPa 0,0 l/m 0 min 0 min 138 W/m 9,7 km/h (2 Bft) 95,74 %
14.03.2021 12:28 6,8 C 6,7 C 5,6 C 90 % 1011,1 hPa 0,0 l/m 0 min 0 min 109 W/m 6,4 km/h (2 Bft) 97,87 %
14.03.2021 12:30 6,8 C 6,7 C 5,0 C 90 % 1011,0 hPa 0,0 l/m 0 min 0 min 133 W/m 12,9 km/h (3 Bft) 94,83 %
14.03.2021 12:32 6,7 C 6,7 C 5,0 C 89 % 1011,1 hPa 0,0 l/m 0 min 0 min 123 W/m 6,4 km/h (2 Bft) 97,92 %
14.03.2021 12:34 6,7 C 6,7 C 5,0 C 89 % 1011,0 hPa 0,0 l/m 0 min 0 min 150 W/m 16,1 km/h (3 Bft) 97,87 %
14.03.2021 12:36 6,6 C 6,7 C 5,0 C 89 % 1011,0 hPa 0,0 l/m 0 min 0 min 174 W/m 9,7 km/h (2 Bft) 97,83 %
14.03.2021 12:38 6,6 C 6,7 C 5,0 C 89 % 1011,0 hPa 0,0 l/m 0 min 0 min 148 W/m 6,4 km/h (2 Bft) 100,00 %
14.03.2021 12:40 6,6 C 6,7 C 5,0 C 90 % 1011,0 hPa 0,0 l/m 0 min 0 min 135 W/m 12,9 km/h (3 Bft) 97,14 %
14.03.2021 12:42 6,6 C 6,7 C 5,0 C 89 % 1011,0 hPa 0,0 l/m 0 min 0 min 156 W/m 12,9 km/h (3 Bft) 97,92 %
14.03.2021 12:44 6,6 C 6,7 C 5,0 C 89 % 1011,0 hPa 0,0 l/m 0 min 0 min 192 W/m 9,7 km/h (2 Bft) 97,87 %
14.03.2021 12:46 6,6 C 6,7 C 5,0 C 89 % 1011,0 hPa 0,0 l/m 0 min 0 min 241 W/m 12,9 km/h (3 Bft) 97,87 %
14.03.2021 12:48 6,7 C 7,2 C 5,0 C 89 % 1011,1 hPa 0,0 l/m 0 min 0 min 216 W/m 12,9 km/h (3 Bft) 97,87 %
14.03.2021 12:50 6,7 C 7,2 C 5,0 C 89 % 1011,0 hPa 0,0 l/m 0 min 0 min 241 W/m 22,5 km/h (4 Bft) 97,87 %
14.03.2021 12:52 6,8 C 7,2 C 5,0 C 89 % 1011,0 hPa 0,0 l/m 0 min 0 min 202 W/m 12,9 km/h (3 Bft) 95,65 %
14.03.2021 12:54 6,8 C 7,2 C 5,0 C 89 % 1011,0 hPa 0,0 l/m 0 min 0 min 203 W/m 12,9 km/h (3 Bft) 97,87 %
14.03.2021 12:56 6,8 C 7,2 C 5,0 C 89 % 1011,1 hPa 0,0 l/m 0 min 0 min 191 W/m 16,1 km/h (3 Bft) 97,87 %
14.03.2021 12:58 6,8 C 7,2 C 5,0 C 89 % 1011,1 hPa 0,0 l/m 0 min 0 min 190 W/m 12,9 km/h (3 Bft) 97,87 %
14.03.2021 13:00 6,9 C 7,2 C 5,6 C 89 % 1011,1 hPa 0,0 l/m 0 min 0 min 220 W/m 16,1 km/h (3 Bft) 100,00 %
14.03.2021 13:02 6,9 C 7,8 C 5,6 C 89 % 1011,1 hPa 0,0 l/m 0 min 0 min 211 W/m 16,1 km/h (3 Bft) 97,87 %
14.03.2021 13:04 7,0 C 7,8 C 5,6 C 89 % 1011,1 hPa 0,0 l/m 0 min 0 min 195 W/m 9,7 km/h (2 Bft) 100,00 %
14.03.2021 13:06 7,0 C 7,8 C 5,6 C 89 % 1011,2 hPa 0,0 l/m 0 min 0 min 181 W/m 9,7 km/h (2 Bft) 97,87 %
14.03.2021 13:08 7,1 C 10,6 C 5,6 C 89 % 1011,1 hPa 0,0 l/m 0 min 0 min 214 W/m 12,9 km/h (3 Bft) 97,87 %
14.03.2021 13:10 7,3 C 10,0 C 5,6 C 89 % 1011,1 hPa 0,0 l/m 0 min 0 min 221 W/m 12,9 km/h (3 Bft) 95,74 %
14.03.2021 13:12 7,3 C 10,6 C 5,6 C 88 % 1011,2 hPa 0,0 l/m 0 min 0 min 241 W/m 9,7 km/h (2 Bft) 97,87 %
14.03.2021 13:14 7,4 C 9,4 C 5,6 C 88 % 1011,2 hPa 0,0 l/m 0 min 0 min 231 W/m 19,3 km/h (3 Bft) 97,87 %
14.03.2021 13:16 7,4 C 8,3 C 5,6 C 88 % 1011,1 hPa 0,0 l/m 0 min 0 min 214 W/m 19,3 km/h (3 Bft) 97,83 %
14.03.2021 13:18 7,4 C 8,3 C 5,6 C 88 % 1011,1 hPa 0,0 l/m 0 min 0 min 243 W/m 12,9 km/h (3 Bft) 95,74 %
14.03.2021 13:20 7,4 C 8,3 C 5,6 C 87 % 1011,1 hPa 0,0 l/m 0 min 0 min 259 W/m 16,1 km/h (3 Bft) 97,87 %
14.03.2021 13:22 7,4 C 8,3 C 5,6 C 87 % 1011,1 hPa 0,0 l/m 2 min 0 min 296 W/m 9,7 km/h (2 Bft) 97,87 %
14.03.2021 13:24 7,4 C 8,9 C 6,1 C 87 % 1011,1 hPa 0,0 l/m 2 min 0 min 340 W/m 9,7 km/h (2 Bft) 97,87 %
14.03.2021 13:26 7,5 C 8,3 C 5,6 C 87 % 1011,1 hPa 0,0 l/m 0 min 0 min 220 W/m 19,3 km/h (3 Bft) 97,87 %
14.03.2021 13:28 7,5 C 8,3 C 5,6 C 87 % 1011,1 hPa 0,0 l/m 0 min 0 min 158 W/m 12,9 km/h (3 Bft) 97,83 %
14.03.2021 13:30 7,5 C 7,8 C 5,6 C 86 % 1011,1 hPa 0,0 l/m 0 min 0 min 134 W/m 16,1 km/h (3 Bft) 97,87 %
14.03.2021 13:32 7,5 C 7,8 C 5,6 C 85 % 1011,1 hPa 0,0 l/m 0 min 0 min 109 W/m 16,1 km/h (3 Bft) 100,00 %
14.03.2021 13:34 7,4 C 7,2 C 5,0 C 85 % 1011,0 hPa 0,0 l/m 0 min 0 min 109 W/m 22,5 km/h (4 Bft) 97,87 %
14.03.2021 13:36 7,4 C 7,2 C 5,0 C 85 % 1011,1 hPa 0,0 l/m 0 min 2 min 105 W/m 12,9 km/h (3 Bft) 95,74 %
14.03.2021 13:38 7,4 C 7,2 C 5,0 C 85 % 1011,1 hPa 0,0 l/m 0 min 2 min 82 W/m 12,9 km/h (3 Bft) 93,62 %
14.03.2021 13:40 7,4 C 7,2 C 5,0 C 85 % 1011,0 hPa 0,0 l/m 0 min 2 min 56 W/m 16,1 km/h (3 Bft) 95,65 %
14.03.2021 13:42 7,3 C 7,2 C 5,0 C 86 % 1011,1 hPa 0,0 l/m 0 min 2 min 53 W/m 12,9 km/h (3 Bft) 95,74 %
14.03.2021 13:44 7,3 C 6,7 C 5,0 C 86 % 1011,0 hPa 0,0 l/m 0 min 2 min 70 W/m 16,1 km/h (3 Bft) 93,62 %
14.03.2021 13:46 7,3 C 6,7 C 5,0 C 86 % 1011,0 hPa 0,0 l/m 0 min 2 min 79 W/m 12,9 km/h (3 Bft) 95,74 %
14.03.2021 13:48 7,3 C 6,7 C 5,0 C 86 % 1011,0 hPa 0,0 l/m 0 min 2 min 76 W/m 6,4 km/h (2 Bft) 95,74 %
14.03.2021 13:50 7,2 C 7,2 C 5,0 C 86 % 1010,9 hPa 0,0 l/m 0 min 0 min 68 W/m 12,9 km/h (3 Bft) 95,74 %
14.03.2021 13:52 7,1 C 6,7 C 5,0 C 86 % 1011,0 hPa 0,0 l/m 0 min 2 min 53 W/m 6,4 km/h (2 Bft) 91,30 %
14.03.2021 13:54 7,1 C 6,7 C 5,0 C 86 % 1011,0 hPa 0,0 l/m 0 min 2 min 34 W/m 6,4 km/h (2 Bft) 95,74 %
14.03.2021 13:56 7,1 C 6,7 C 5,0 C 87 % 1011,0 hPa 0,0 l/m 0 min 2 min 19 W/m 6,4 km/h (2 Bft) 95,74 %
14.03.2021 13:58 7,1 C 6,7 C 4,5 C 87 % 1011,1 hPa 0,0 l/m 0 min 2 min 17 W/m 12,9 km/h (3 Bft) 97,87 %
14.03.2021 14:00 7,1 C 6,1 C 4,5 C 87 % 1011,1 hPa 0,2 l/m 0 min 2 min 22 W/m 19,3 km/h (3 Bft) 95,74 %
14.03.2021 14:02 7,0 C 6,1 C 3,9 C 87 % 1011,2 hPa 0,2 l/m 0 min 2 min 27 W/m 25,7 km/h (4 Bft) 95,74 %
14.03.2021 14:04 6,9 C 5,6 C 3,9 C 87 % 1011,3 hPa 0,0 l/m 0 min 2 min 46 W/m 22,5 km/h (4 Bft) 95,65 %
14.03.2021 14:06 6,7 C 5,6 C 3,9 C 87 % 1011,2 hPa 0,2 l/m 0 min 2 min 91 W/m 19,3 km/h (3 Bft) 95,74 %
14.03.2021 14:08 6,6 C 6,1 C 3,9 C 87 % 1011,2 hPa 0,0 l/m 0 min 0 min 169 W/m 22,5 km/h (4 Bft) 91,49 %
14.03.2021 14:10 6,5 C 7,2 C 3,9 C 88 % 1011,2 hPa 0,0 l/m 0 min 0 min 255 W/m 12,9 km/h (3 Bft) 95,74 %
14.03.2021 14:12 6,5 C 7,8 C 3,9 C 89 % 1011,2 hPa 0,0 l/m 0 min 0 min 259 W/m 9,7 km/h (2 Bft) 95,74 %
14.03.2021 14:14 6,5 C 8,3 C 4,5 C 89 % 1011,2 hPa 0,0 l/m 2 min 0 min 307 W/m 16,1 km/h (3 Bft) 95,65 %
14.03.2021 14:16 6,6 C 11,1 C 4,5 C 89 % 1011,2 hPa 0,0 l/m 2 min 0 min 514 W/m 12,9 km/h (3 Bft) 93,62 %
14.03.2021 14:18 6,8 C 12,8 C 4,5 C 90 % 1011,2 hPa 0,0 l/m 2 min 0 min 583 W/m 12,9 km/h (3 Bft) 93,62 %
14.03.2021 14:20 7,0 C 13,9 C 5,0 C 90 % 1011,2 hPa 0,0 l/m 2 min 0 min 584 W/m 12,9 km/h (3 Bft) 91,49 %
14.03.2021 14:22 7,3 C 15,0 C 5,0 C 91 % 1011,2 hPa 0,0 l/m 2 min 0 min 596 W/m 6,4 km/h (2 Bft) 95,74 %
14.03.2021 14:24 7,5 C 14,4 C 5,0 C 91 % 1011,1 hPa 0,0 l/m 2 min 0 min 605 W/m 6,4 km/h (2 Bft) 95,74 %
14.03.2021 14:26 7,6 C 12,8 C 5,6 C 91 % 1011,1 hPa 0,0 l/m 0 min 0 min 260 W/m 9,7 km/h (2 Bft) 93,62 %
14.03.2021 14:28 7,8 C 12,2 C 5,6 C 90 % 1011,2 hPa 0,0 l/m 0 min 0 min 255 W/m 12,9 km/h (3 Bft) 97,83 %
14.03.2021 14:30 7,8 C 10,6 C 5,6 C 90 % 1011,1 hPa 0,0 l/m 0 min 0 min 228 W/m 12,9 km/h (3 Bft) 97,87 %
14.03.2021 14:32 7,9 C 10,0 C 5,6 C 89 % 1011,2 hPa 0,0 l/m 0 min 0 min 199 W/m 9,7 km/h (2 Bft) 96,36 %
14.03.2021 14:34 7,9 C 9,4 C 5,6 C 89 % 1011,1 hPa 0,0 l/m 0 min 2 min 248 W/m 6,4 km/h (2 Bft) 100,00 %
14.03.2021 14:36 7,9 C 9,4 C 6,1 C 89 % 1011,1 hPa 0,0 l/m 2 min 0 min 264 W/m 6,4 km/h (2 Bft) 100,00 %
14.03.2021 14:38 8,0 C 8,9 C 6,1 C 89 % 1011,1 hPa 0,0 l/m 0 min 0 min 234 W/m 12,9 km/h (3 Bft) 100,00 %
14.03.2021 14:40 8,0 C 8,9 C 6,1 C 89 % 1011,1 hPa 0,0 l/m 0 min 0 min 235 W/m 22,5 km/h (4 Bft) 100,00 %
14.03.2021 14:42 8,0 C 8,9 C 6,1 C 89 % 1011,2 hPa 0,0 l/m 0 min 0 min 226 W/m 22,5 km/h (4 Bft) 97,87 %
14.03.2021 14:44 8,0 C 8,3 C 6,1 C 88 % 1011,2 hPa 0,0 l/m 0 min 0 min 198 W/m 16,1 km/h (3 Bft) 100,00 %
14.03.2021 14:46 8,0 C 8,3 C 5,6 C 87 % 1011,1 hPa 0,0 l/m 0 min 0 min 184 W/m 29,0 km/h (5 Bft) 97,87 %
14.03.2021 14:48 8,0 C 8,3 C 5,6 C 85 % 1011,2 hPa 0,0 l/m 0 min 0 min 179 W/m 16,1 km/h (3 Bft) 100,00 %
14.03.2021 14:50 8,0 C 7,8 C 5,6 C 84 % 1011,2 hPa 0,0 l/m 0 min 0 min 176 W/m 19,3 km/h (3 Bft) 100,00 %
14.03.2021 14:52 8,0 C 9,4 C 5,6 C 84 % 1011,3 hPa 0,0 l/m 0 min 0 min 175 W/m 22,5 km/h (4 Bft) 97,87 %
14.03.2021 14:54 8,1 C 8,9 C 6,1 C 83 % 1011,2 hPa 0,0 l/m 0 min 0 min 165 W/m 16,1 km/h (3 Bft) 100,00 %
14.03.2021 14:56 8,1 C 8,3 C 6,1 C 82 % 1011,2 hPa 0,0 l/m 0 min 0 min 113 W/m 19,3 km/h (3 Bft) 100,00 %
14.03.2021 14:58 8,1 C 8,3 C 6,1 C 82 % 1011,3 hPa 0,0 l/m 0 min 0 min 146 W/m 25,7 km/h (4 Bft) 100,00 %
14.03.2021 15:00 8,1 C 8,3 C 6,1 C 81 % 1011,3 hPa 0,0 l/m 0 min 0 min 182 W/m 19,3 km/h (3 Bft) 100,00 %
14.03.2021 15:02 8,1 C 8,3 C 6,1 C 81 % 1011,3 hPa 0,0 l/m 0 min 0 min 186 W/m 16,1 km/h (3 Bft) 95,74 %
14.03.2021 15:04 8,1 C 8,3 C 6,1 C 81 % 1011,3 hPa 0,0 l/m 0 min 0 min 165 W/m 12,9 km/h (3 Bft) 100,00 %
14.03.2021 15:06 8,1 C 7,8 C 6,1 C 81 % 1011,3 hPa 0,0 l/m 0 min 0 min 141 W/m 29,0 km/h (5 Bft) 100,00 %
14.03.2021 15:08 8,1 C 7,8 C 6,1 C 81 % 1011,4 hPa 0,0 l/m 0 min 0 min 112 W/m 22,5 km/h (4 Bft) 100,00 %
14.03.2021 15:10 8,1 C 7,8 C 6,1 C 81 % 1011,4 hPa 0,0 l/m 0 min 0 min 91 W/m 32,2 km/h (5 Bft) 100,00 %
14.03.2021 15:12 8,0 C 7,8 C 5,6 C 81 % 1011,4 hPa 0,0 l/m 0 min 0 min 91 W/m 22,5 km/h (4 Bft) 97,83 %
14.03.2021 15:14 8,0 C 7,8 C 5,6 C 81 % 1011,5 hPa 0,0 l/m 0 min 0 min 108 W/m 22,5 km/h (4 Bft) 95,74 %
14.03.2021 15:16 7,9 C 7,8 C 5,6 C 82 % 1011,5 hPa 0,0 l/m 0 min 2 min 151 W/m 19,3 km/h (3 Bft) 97,87 %
14.03.2021 15:18 7,9 C 7,8 C 5,6 C 82 % 1011,4 hPa 0,0 l/m 0 min 0 min 174 W/m 19,3 km/h (3 Bft) 97,87 %
14.03.2021 15:20 7,9 C 7,8 C 5,6 C 82 % 1011,5 hPa 0,0 l/m 0 min 0 min 182 W/m 16,1 km/h (3 Bft) 95,74 %
14.03.2021 15:22 7,9 C 7,8 C 6,1 C 82 % 1011,5 hPa 0,0 l/m 0 min 0 min 200 W/m 25,7 km/h (4 Bft) 97,87 %
14.03.2021 15:24 7,9 C 8,3 C 6,1 C 82 % 1011,5 hPa 0,0 l/m 2 min 0 min 228 W/m 16,1 km/h (3 Bft) 95,65 %
14.03.2021 15:26 7,9 C 8,3 C 6,1 C 82 % 1011,5 hPa 0,0 l/m 0 min 0 min 215 W/m 22,5 km/h (4 Bft) 97,87 %
14.03.2021 15:28 8,0 C 8,3 C 6,1 C 82 % 1011,6 hPa 0,0 l/m 0 min 0 min 210 W/m 32,2 km/h (5 Bft) 97,87 %
14.03.2021 15:30 8,0 C 8,3 C 6,1 C 82 % 1011,5 hPa 0,0 l/m 0 min 0 min 181 W/m 29,0 km/h (5 Bft) 97,87 %
14.03.2021 15:32 8,0 C 7,8 C 6,1 C 81 % 1011,5 hPa 0,0 l/m 0 min 0 min 157 W/m 32,2 km/h (5 Bft) 97,87 %
14.03.2021 15:34 8,0 C 7,8 C 6,1 C 81 % 1011,5 hPa 0,0 l/m 0 min 0 min 150 W/m 19,3 km/h (3 Bft) 97,44 %
14.03.2021 15:36 8,0 C 7,8 C 6,1 C 80 % 1011,5 hPa 0,0 l/m 0 min 0 min 143 W/m 29,0 km/h (5 Bft) 98,28 %
14.03.2021 15:38 8,0 C 7,8 C 6,1 C 81 % 1011,5 hPa 0,0 l/m 0 min 0 min 155 W/m 12,9 km/h (3 Bft) 97,14 %
14.03.2021 15:40 8,0 C 7,8 C 6,1 C 80 % 1011,5 hPa 0,0 l/m 0 min 0 min 185 W/m 19,3 km/h (3 Bft) 97,87 %
14.03.2021 15:42 8,0 C 8,3 C 6,1 C 80 % 1011,5 hPa 0,0 l/m 2 min 0 min 232 W/m 19,3 km/h (3 Bft) 97,87 %
14.03.2021 15:44 8,1 C 10,0 C 6,1 C 79 % 1011,6 hPa 0,0 l/m 2 min 0 min 346 W/m 22,5 km/h (4 Bft) 95,74 %
14.03.2021 15:46 8,3 C 12,8 C 6,1 C 79 % 1011,6 hPa 0,0 l/m 2 min 0 min 506 W/m 12,9 km/h (3 Bft) 97,87 %
14.03.2021 15:48 8,5 C 12,8 C 6,7 C 79 % 1011,5 hPa 0,0 l/m 2 min 0 min 447 W/m 19,3 km/h (3 Bft) 97,87 %
14.03.2021 15:50 8,6 C 12,8 C 6,7 C 79 % 1011,6 hPa 0,0 l/m 2 min 0 min 433 W/m 25,7 km/h (4 Bft) 93,62 %
14.03.2021 15:52 8,8 C 13,3 C 6,7 C 79 % 1011,5 hPa 0,0 l/m 2 min 0 min 424 W/m 19,3 km/h (3 Bft) 97,83 %
14.03.2021 15:54 8,8 C 13,9 C 6,7 C 78 % 1011,6 hPa 0,0 l/m 2 min 0 min 420 W/m 16,1 km/h (3 Bft) 97,87 %
14.03.2021 15:56 8,9 C 12,8 C 6,7 C 79 % 1011,5 hPa 0,0 l/m 2 min 0 min 414 W/m 19,3 km/h (3 Bft) 100,00 %
14.03.2021 15:58 8,9 C 10,6 C 6,1 C 77 % 1011,5 hPa 0,0 l/m 2 min 0 min 311 W/m 19,3 km/h (3 Bft) 97,87 %
14.03.2021 16:00 8,8 C 10,0 C 6,1 C 77 % 1011,5 hPa 0,0 l/m 0 min 0 min 157 W/m 19,3 km/h (3 Bft) 100,00 %
14.03.2021 16:02 8,7 C 10,0 C 6,1 C 77 % 1011,5 hPa 0,0 l/m 2 min 0 min 271 W/m 19,3 km/h (3 Bft) 100,00 %
14.03.2021 16:04 8,6 C 10,0 C 6,1 C 77 % 1011,5 hPa 0,0 l/m 2 min 0 min 256 W/m 25,7 km/h (4 Bft) 100,00 %
14.03.2021 16:06 8,6 C 12,2 C 6,1 C 77 % 1011,5 hPa 0,0 l/m 2 min 0 min 255 W/m 19,3 km/h (3 Bft) 100,00 %
14.03.2021 16:08 8,7 C 12,8 C 6,1 C 78 % 1011,6 hPa 0,0 l/m 2 min 0 min 400 W/m 19,3 km/h (3 Bft) 100,00 %
14.03.2021 16:10 8,8 C 11,7 C 6,1 C 77 % 1011,6 hPa 0,0 l/m 2 min 0 min 408 W/m 22,5 km/h (4 Bft) 100,00 %
14.03.2021 16:12 8,8 C 10,0 C 6,1 C 77 % 1011,5 hPa 0,0 l/m 0 min 0 min 90 W/m 16,1 km/h (3 Bft) 100,00 %
14.03.2021 16:14 8,8 C 8,9 C 6,1 C 77 % 1011,6 hPa 0,0 l/m 0 min 0 min 57 W/m 22,5 km/h (4 Bft) 100,00 %
14.03.2021 16:16 8,6 C 8,3 C 5,6 C 77 % 1011,6 hPa 0,0 l/m 0 min 0 min 72 W/m 19,3 km/h (3 Bft) 100,00 %
14.03.2021 16:18 8,5 C 8,3 C 5,6 C 76 % 1011,7 hPa 0,0 l/m 0 min 0 min 84 W/m 25,7 km/h (4 Bft) 100,00 %
14.03.2021 16:20 8,5 C 10,0 C 5,6 C 76 % 1011,6 hPa 0,0 l/m 0 min 0 min 160 W/m 22,5 km/h (4 Bft) 100,00 %
14.03.2021 16:22 8,5 C 11,7 C 6,1 C 76 % 1011,6 hPa 0,0 l/m 2 min 0 min 370 W/m 22,5 km/h (4 Bft) 100,00 %
14.03.2021 16:24 8,5 C 11,7 C 6,1 C 75 % 1011,7 hPa 0,0 l/m 2 min 0 min 356 W/m 41,8 km/h (6 Bft) 100,00 %
14.03.2021 16:26 8,6 C 11,7 C 6,1 C 75 % 1011,8 hPa 0,0 l/m 2 min 0 min 356 W/m 25,7 km/h (4 Bft) 100,00 %
14.03.2021 16:28 8,7 C 10,0 C 6,1 C 75 % 1011,8 hPa 0,0 l/m 2 min 0 min 326 W/m 22,5 km/h (4 Bft) 100,00 %
14.03.2021 16:30 8,6 C 9,4 C 6,1 C 75 % 1011,7 hPa 0,0 l/m 0 min 0 min 111 W/m 16,1 km/h (3 Bft) 100,00 %
14.03.2021 16:32 8,6 C 8,9 C 6,1 C 75 % 1011,8 hPa 0,0 l/m 2 min 0 min 164 W/m 19,3 km/h (3 Bft) 100,00 %
14.03.2021 16:34 8,5 C 8,3 C 6,1 C 75 % 1011,8 hPa 0,0 l/m 2 min 0 min 154 W/m 19,3 km/h (3 Bft) 97,87 %
14.03.2021 16:36 8,4 C 7,8 C 6,1 C 75 % 1011,8 hPa 0,0 l/m 0 min 0 min 101 W/m 19,3 km/h (3 Bft) 100,00 %
14.03.2021 16:38 8,4 C 7,8 C 5,6 C 76 % 1011,8 hPa 0,0 l/m 0 min 0 min 112 W/m 35,4 km/h (5 Bft) 97,83 %
14.03.2021 16:40 8,3 C 7,8 C 5,6 C 76 % 1011,8 hPa 0,0 l/m 0 min 0 min 111 W/m 22,5 km/h (4 Bft) 97,87 %
14.03.2021 16:42 8,3 C 7,8 C 5,6 C 76 % 1011,7 hPa 0,0 l/m 0 min 0 min 96 W/m 19,3 km/h (3 Bft) 97,87 %
14.03.2021 16:44 8,2 C 7,8 C 5,6 C 77 % 1011,8 hPa 0,0 l/m 0 min 0 min 70 W/m 19,3 km/h (3 Bft) 95,74 %
14.03.2021 16:46 8,1 C 7,8 C 5,6 C 77 % 1011,9 hPa 0,0 l/m 0 min 0 min 57 W/m 22,5 km/h (4 Bft) 97,87 %
14.03.2021 16:48 8,0 C 7,2 C 5,0 C 77 % 1011,9 hPa 0,0 l/m 0 min 0 min 51 W/m 22,5 km/h (4 Bft) 97,87 %
14.03.2021 16:50 7,9 C 7,2 C 5,0 C 76 % 1011,9 hPa 0,0 l/m 0 min 0 min 55 W/m 19,3 km/h (3 Bft) 95,65 %
14.03.2021 16:52 7,9 C 7,2 C 5,0 C 76 % 1011,9 hPa 0,0 l/m 0 min 0 min 49 W/m 25,7 km/h (4 Bft) 97,87 %
14.03.2021 16:54 7,7 C 7,2 C 5,0 C 75 % 1012,0 hPa 0,0 l/m 0 min 0 min 49 W/m 16,1 km/h (3 Bft) 97,87 %
14.03.2021 16:56 7,6 C 7,2 C 5,0 C 76 % 1012,0 hPa 0,0 l/m 0 min 0 min 47 W/m 19,3 km/h (3 Bft) 95,74 %
14.03.2021 16:58 7,5 C 7,2 C 4,5 C 76 % 1012,0 hPa 0,0 l/m 0 min 0 min 43 W/m 16,1 km/h (3 Bft) 95,74 %
14.03.2021 17:00 7,5 C 6,7 C 4,5 C 76 % 1012,0 hPa 0,0 l/m 0 min 0 min 46 W/m 12,9 km/h (3 Bft) 97,83 %
14.03.2021 17:02 7,4 C 6,7 C 4,5 C 76 % 1012,0 hPa 0,0 l/m 0 min 0 min 61 W/m 19,3 km/h (3 Bft) 93,62 %
14.03.2021 17:04 7,4 C 7,2 C 4,5 C 76 % 1012,0 hPa 0,0 l/m 2 min 0 min 115 W/m 19,3 km/h (3 Bft) 95,74 %
14.03.2021 17:06 7,4 C 7,2 C 4,5 C 76 % 1012,1 hPa 0,0 l/m 0 min 0 min 67 W/m 16,1 km/h (3 Bft) 95,74 %
14.03.2021 17:08 7,4 C 7,2 C 4,5 C 76 % 1012,2 hPa 0,0 l/m 0 min 0 min 61 W/m 19,3 km/h (3 Bft) 91,49 %
14.03.2021 17:10 7,4 C 6,7 C 4,5 C 76 % 1012,1 hPa 0,0 l/m 0 min 0 min 47 W/m 19,3 km/h (3 Bft) 48,84 %
14.03.2021 17:12 7,4 C 6,7 C 4,5 C 77 % 1012,1 hPa 0,0 l/m 0 min 0 min 59 W/m 16,1 km/h (3 Bft) 95,65 %
14.03.2021 17:14 7,3 C 7,2 C 4,5 C 77 % 1012,1 hPa 0,0 l/m 2 min 0 min 107 W/m 16,1 km/h (3 Bft) 95,74 %
14.03.2021 17:16 7,4 C 7,2 C 5,0 C 77 % 1012,1 hPa 0,0 l/m 2 min 0 min 161 W/m 12,9 km/h (3 Bft) 93,62 %
14.03.2021 17:18 7,4 C 7,2 C 5,0 C 77 % 1012,1 hPa 0,0 l/m 0 min 0 min 88 W/m 32,2 km/h (5 Bft) 95,74 %
14.03.2021 17:20 7,4 C 7,2 C 5,0 C 77 % 1012,1 hPa 0,0 l/m 0 min 0 min 78 W/m 16,1 km/h (3 Bft) 93,62 %
14.03.2021 17:22 7,5 C 7,2 C 5,0 C 77 % 1012,1 hPa 0,0 l/m 0 min 0 min 71 W/m 16,1 km/h (3 Bft) 97,87 %
14.03.2021 17:24 7,5 C 7,2 C 5,0 C 77 % 1012,2 hPa 0,0 l/m 0 min 0 min 67 W/m 19,3 km/h (3 Bft) 97,83 %
14.03.2021 17:26 7,5 C 7,2 C 5,0 C 77 % 1012,2 hPa 0,0 l/m 0 min 0 min 70 W/m 12,9 km/h (3 Bft) 97,87 %
14.03.2021 17:28 7,5 C 7,2 C 5,0 C 78 % 1012,2 hPa 0,0 l/m 0 min 0 min 78 W/m 6,4 km/h (2 Bft) 97,87 %
14.03.2021 17:30 7,5 C 7,2 C 5,0 C 78 % 1012,2 hPa 0,0 l/m 0 min 0 min 71 W/m 12,9 km/h (3 Bft) 97,87 %
14.03.2021 17:32 7,4 C 7,2 C 5,0 C 78 % 1012,2 hPa 0,0 l/m 0 min 0 min 65 W/m 6,4 km/h (2 Bft) 97,92 %
14.03.2021 17:34 7,4 C 7,2 C 5,0 C 78 % 1012,2 hPa 0,0 l/m 0 min 0 min 54 W/m 9,7 km/h (2 Bft) 97,87 %
14.03.2021 17:36 7,4 C 7,2 C 4,5 C 78 % 1012,3 hPa 0,0 l/m 0 min 0 min 47 W/m 16,1 km/h (3 Bft) 97,96 %
14.03.2021 17:38 7,4 C 6,7 C 4,5 C 78 % 1012,3 hPa 0,0 l/m 0 min 0 min 43 W/m 9,7 km/h (2 Bft) 95,74 %
14.03.2021 17:40 7,4 C 6,7 C 4,5 C 78 % 1012,3 hPa 0,0 l/m 0 min 0 min 43 W/m 12,9 km/h (3 Bft) 97,87 %
14.03.2021 17:42 7,4 C 7,2 C 4,5 C 78 % 1012,3 hPa 0,0 l/m 0 min 0 min 49 W/m 16,1 km/h (3 Bft) 95,74 %
14.03.2021 17:44 7,4 C 7,2 C 5,0 C 77 % 1012,3 hPa 0,0 l/m 0 min 0 min 58 W/m 25,7 km/h (4 Bft) 97,87 %
14.03.2021 17:46 7,4 C 7,2 C 5,0 C 77 % 1012,4 hPa 0,0 l/m 0 min 0 min 47 W/m 16,1 km/h (3 Bft) 95,65 %
14.03.2021 17:48 7,4 C 7,2 C 4,5 C 77 % 1012,4 hPa 0,0 l/m 0 min 0 min 36 W/m 19,3 km/h (3 Bft) 95,74 %
14.03.2021 17:50 7,4 C 6,7 C 4,5 C 77 % 1012,4 hPa 0,0 l/m 0 min 0 min 34 W/m 19,3 km/h (3 Bft) 97,87 %
14.03.2021 17:52 7,4 C 6,7 C 4,5 C 77 % 1012,4 hPa 0,0 l/m 0 min 0 min 37 W/m 16,1 km/h (3 Bft) 95,74 %
14.03.2021 17:54 7,3 C 6,7 C 4,5 C 78 % 1012,5 hPa 0,0 l/m 0 min 0 min 33 W/m 12,9 km/h (3 Bft) 97,87 %
14.03.2021 17:56 7,3 C 6,7 C 4,5 C 78 % 1012,4 hPa 0,0 l/m 0 min 0 min 33 W/m 12,9 km/h (3 Bft) 97,87 %
14.03.2021 17:58 7,3 C 6,7 C 4,5 C 78 % 1012,4 hPa 0,0 l/m 0 min 0 min 34 W/m 9,7 km/h (2 Bft) 95,65 %
14.03.2021 18:00 7,3 C 6,7 C 4,5 C 78 % 1012,5 hPa 0,0 l/m 0 min 0 min 31 W/m 16,1 km/h (3 Bft) 100,00 %
14.03.2021 18:02 7,2 C 6,7 C 4,5 C 78 % 1012,5 hPa 0,0 l/m 0 min 0 min 26 W/m 12,9 km/h (3 Bft) 100,00 %
14.03.2021 18:04 7,2 C 6,7 C 4,5 C 78 % 1012,5 hPa 0,0 l/m 0 min 0 min 23 W/m 12,9 km/h (3 Bft) 100,00 %
14.03.2021 18:08 7,2 C 6,7 C 4,5 C 79 % 1012,5 hPa 0,0 l/m 0 min 0 min 21 W/m 12,9 km/h (3 Bft) 96,81 %
14.03.2021 18:10 7,1 C 6,7 C 4,5 C 79 % 1012,5 hPa 0,0 l/m 0 min 0 min 23 W/m 12,9 km/h (3 Bft) 97,83 %
14.03.2021 18:12 7,1 C 6,7 C 4,5 C 79 % 1012,6 hPa 0,0 l/m 0 min 0 min 25 W/m 9,7 km/h (2 Bft) 95,74 %
14.03.2021 18:14 7,1 C 6,7 C 4,5 C 79 % 1012,6 hPa 0,0 l/m 2 min 0 min 26 W/m 16,1 km/h (3 Bft) 97,87 %
14.03.2021 18:16 7,1 C 6,7 C 4,5 C 78 % 1012,6 hPa 0,0 l/m 2 min 0 min 25 W/m 12,9 km/h (3 Bft) 93,62 %
14.03.2021 18:18 7,1 C 6,7 C 4,5 C 78 % 1012,6 hPa 0,0 l/m 2 min 0 min 24 W/m 9,7 km/h (2 Bft) 97,87 %
14.03.2021 18:20 7,1 C 6,7 C 4,5 C 78 % 1012,6 hPa 0,0 l/m 2 min 0 min 20 W/m 16,1 km/h (3 Bft) 95,74 %
14.03.2021 18:22 7,0 C 6,1 C 4,5 C 78 % 1012,7 hPa 0,0 l/m 0 min 0 min 17 W/m 12,9 km/h (3 Bft) 97,83 %
14.03.2021 18:24 7,0 C 6,1 C 3,9 C 79 % 1012,7 hPa 0,0 l/m 0 min 0 min 16 W/m 16,1 km/h (3 Bft) 97,87 %
14.03.2021 18:26 7,0 C 6,1 C 3,9 C 79 % 1012,7 hPa 0,0 l/m 0 min 0 min 15 W/m 9,7 km/h (2 Bft) 97,87 %
14.03.2021 18:28 6,9 C 6,1 C 3,9 C 79 % 1012,7 hPa 0,0 l/m 0 min 0 min 12 W/m 12,9 km/h (3 Bft) 95,74 %
14.03.2021 18:30 6,9 C 6,1 C 3,9 C 79 % 1012,7 hPa 0,0 l/m 0 min 0 min 10 W/m 12,9 km/h (3 Bft) 97,87 %
14.03.2021 18:32 6,9 C 6,1 C 3,9 C 79 % 1012,7 hPa 0,0 l/m 0 min 0 min 9 W/m 19,3 km/h (3 Bft) 93,62 %
14.03.2021 18:34 6,9 C 6,1 C 3,9 C 79 % 1012,7 hPa 0,0 l/m 0 min 0 min 7 W/m 19,3 km/h (3 Bft) 97,83 %
14.03.2021 18:36 6,9 C 6,1 C 3,9 C 79 % 1012,8 hPa 0,0 l/m 0 min 0 min 5 W/m 19,3 km/h (3 Bft) 97,87 %
14.03.2021 18:38 6,9 C 6,1 C 3,9 C 79 % 1012,8 hPa 0,0 l/m 0 min 0 min 2 W/m 12,9 km/h (3 Bft) 97,87 %
14.03.2021 18:40 6,9 C 6,1 C 3,9 C 79 % 1012,8 hPa 0,0 l/m 0 min 0 min 0 W/m 16,1 km/h (3 Bft) 97,87 %
14.03.2021 18:42 6,8 C 6,1 C 3,9 C 79 % 1012,9 hPa 0,0 l/m 0 min 0 min 0 W/m 12,9 km/h (3 Bft) 97,87 %
14.03.2021 18:44 6,8 C 6,1 C 3,9 C 79 % 1012,9 hPa 0,0 l/m 0 min 0 min 0 W/m 9,7 km/h (2 Bft) 97,87 %
14.03.2021 18:46 6,8 C 6,1 C 3,9 C 79 % 1012,9 hPa 0,0 l/m 0 min 0 min 0 W/m 6,4 km/h (2 Bft) 97,83 %
14.03.2021 18:48 6,7 C 6,1 C 3,9 C 80 % 1012,9 hPa 0,0 l/m 0 min 0 min 0 W/m 9,7 km/h (2 Bft) 97,87 %
14.03.2021 18:50 6,6 C 6,1 C 3,9 C 80 % 1013,0 hPa 0,0 l/m 0 min 0 min 0 W/m 9,7 km/h (2 Bft) 97,87 %
14.03.2021 18:52 6,6 C 5,6 C 3,9 C 80 % 1013,0 hPa 0,0 l/m 0 min 0 min 0 W/m 6,4 km/h (2 Bft) 100,00 %
14.03.2021 18:54 6,6 C 5,6 C 3,9 C 80 % 1013,0 hPa 0,0 l/m 0 min 0 min 0 W/m 6,4 km/h (2 Bft) 97,87 %
14.03.2021 18:56 6,5 C 5,6 C 3,4 C 81 % 1013,0 hPa 0,0 l/m 0 min 0 min 0 W/m 6,4 km/h (2 Bft) 100,00 %
14.03.2021 18:58 6,5 C 5,6 C 3,4 C 81 % 1013,1 hPa 0,0 l/m 0 min 0 min 0 W/m 6,4 km/h (2 Bft) 97,83 %
14.03.2021 19:00 6,5 C 5,6 C 3,4 C 81 % 1013,1 hPa 0,0 l/m 0 min 0 min 0 W/m 6,4 km/h (2 Bft) 97,87 %
14.03.2021 19:02 6,4 C 5,6 C 3,4 C 81 % 1013,1 hPa 0,0 l/m 0 min 0 min 0 W/m 9,7 km/h (2 Bft) 100,00 %
14.03.2021 19:04 6,4 C 5,6 C 3,4 C 81 % 1013,1 hPa 0,0 l/m 0 min 0 min 0 W/m 9,7 km/h (2 Bft) 100,00 %
14.03.2021 19:06 6,4 C 5,6 C 3,4 C 81 % 1013,1 hPa 0,0 l/m 0 min 0 min 0 W/m 6,4 km/h (2 Bft) 100,00 %
14.03.2021 19:08 6,4 C 5,6 C 3,4 C 82 % 1013,1 hPa 0,0 l/m 0 min 0 min 0 W/m 6,4 km/h (2 Bft) 100,00 %
14.03.2021 19:10 6,4 C 5,6 C 3,4 C 82 % 1013,1 hPa 0,0 l/m 0 min 0 min 0 W/m 9,7 km/h (2 Bft) 100,00 %
14.03.2021 19:12 6,4 C 5,6 C 3,4 C 82 % 1013,2 hPa 0,0 l/m 0 min 0 min 0 W/m 3,2 km/h (1 Bft) 100,00 %
14.03.2021 19:14 6,3 C 5,6 C 3,4 C 82 % 1013,1 hPa 0,0 l/m 0 min 0 min 0 W/m 6,4 km/h (2 Bft) 100,00 %
14.03.2021 19:16 6,3 C 5,6 C 3,4 C 82 % 1013,1 hPa 0,0 l/m 0 min 0 min 0 W/m 6,4 km/h (2 Bft) 100,00 %
14.03.2021 19:18 6,3 C 5,6 C 3,4 C 82 % 1013,1 hPa 0,0 l/m 0 min 0 min 0 W/m 6,4 km/h (2 Bft) 100,00 %
14.03.2021 19:20 6,3 C 5,6 C 3,4 C 83 % 1013,1 hPa 0,0 l/m 0 min 0 min 0 W/m 9,7 km/h (2 Bft) 97,87 %
14.03.2021 19:22 6,3 C 5,6 C 3,4 C 83 % 1013,1 hPa 0,0 l/m 0 min 0 min 0 W/m 12,9 km/h (3 Bft) 100,00 %
14.03.2021 19:24 6,3 C 5,6 C 3,4 C 83 % 1013,1 hPa 0,0 l/m 0 min 0 min 0 W/m 12,9 km/h (3 Bft) 100,00 %
14.03.2021 19:26 6,3 C 5,6 C 3,4 C 83 % 1013,2 hPa 0,0 l/m 0 min 0 min 0 W/m 12,9 km/h (3 Bft) 100,00 %
14.03.2021 19:28 6,3 C 5,6 C 3,4 C 83 % 1013,2 hPa 0,0 l/m 0 min 0 min 0 W/m 3,2 km/h (1 Bft) 100,00 %
14.03.2021 19:30 6,3 C 5,6 C 3,4 C 83 % 1013,2 hPa 0,0 l/m 0 min 0 min 0 W/m 6,4 km/h (2 Bft) 100,00 %
14.03.2021 19:32 6,3 C 5,6 C 3,9 C 83 % 1013,2 hPa 0,0 l/m 0 min 0 min 0 W/m 6,4 km/h (2 Bft) 97,87 %
14.03.2021 19:34 6,3 C 5,6 C 3,4 C 84 % 1013,2 hPa 0,0 l/m 0 min 0 min 0 W/m 6,4 km/h (2 Bft) 97,83 %
14.03.2021 19:36 6,3 C 5,6 C 3,4 C 84 % 1013,2 hPa 0,0 l/m 0 min 0 min 0 W/m 3,2 km/h (1 Bft) 95,74 %
14.03.2021 19:38 6,3 C 5,6 C 3,4 C 84 % 1013,2 hPa 0,0 l/m 0 min 0 min 0 W/m 6,4 km/h (2 Bft) 97,87 %
14.03.2021 19:40 6,3 C 5,6 C 3,4 C 84 % 1013,2 hPa 0,0 l/m 0 min 0 min 0 W/m 6,4 km/h (2 Bft) 97,87 %
14.03.2021 19:42 6,3 C 5,6 C 3,4 C 84 % 1013,2 hPa 0,0 l/m 0 min 0 min 0 W/m 9,7 km/h (2 Bft) 95,74 %
14.03.2021 19:44 6,2 C 5,6 C 3,4 C 84 % 1013,2 hPa 0,0 l/m 0 min 0 min 0 W/m 12,9 km/h (3 Bft) 97,87 %
14.03.2021 19:46 6,2 C 5,6 C 3,4 C 84 % 1013,3 hPa 0,0 l/m 0 min 0 min 0 W/m 6,4 km/h (2 Bft) 95,65 %
14.03.2021 19:48 6,1 C 5,6 C 3,4 C 84 % 1013,2 hPa 0,0 l/m 0 min 0 min 0 W/m 6,4 km/h (2 Bft) 97,87 %
14.03.2021 19:50 6,1 C 5,6 C 3,4 C 84 % 1013,2 hPa 0,0 l/m 0 min 0 min 0 W/m 3,2 km/h (1 Bft) 93,62 %
14.03.2021 19:52 6,1 C 5,0 C 3,4 C 84 % 1013,2 hPa 0,0 l/m 0 min 0 min 0 W/m 12,9 km/h (3 Bft) 97,87 %
14.03.2021 19:54 6,1 C 5,0 C 3,4 C 85 % 1013,2 hPa 0,0 l/m 0 min 0 min 0 W/m 6,4 km/h (2 Bft) 95,74 %
14.03.2021 19:56 6,0 C 5,0 C 3,4 C 85 % 1013,2 hPa 0,0 l/m 0 min 0 min 0 W/m 6,4 km/h (2 Bft) 97,87 %
14.03.2021 19:58 6,0 C 5,0 C 3,4 C 85 % 1013,2 hPa 0,0 l/m 0 min 0 min 0 W/m 6,4 km/h (2 Bft) 97,83 %
14.03.2021 20:00 6,0 C 5,0 C 3,4 C 85 % 1013,2 hPa 0,0 l/m 0 min 0 min 0 W/m 6,4 km/h (2 Bft) 97,87 %
14.03.2021 20:02 6,0 C 5,0 C 3,4 C 85 % 1013,2 hPa 0,0 l/m 0 min 0 min 0 W/m 6,4 km/h (2 Bft) 96,23 %
14.03.2021 20:04 6,0 C 5,0 C 3,4 C 85 % 1013,2 hPa 0,0 l/m 0 min 0 min 0 W/m 3,2 km/h (1 Bft) 97,87 %
14.03.2021 20:06 5,9 C 5,0 C 3,4 C 85 % 1013,2 hPa 0,0 l/m 0 min 0 min 0 W/m 3,2 km/h (1 Bft) 95,74 %
14.03.2021 20:08 5,9 C 5,0 C 3,4 C 85 % 1013,2 hPa 0,0 l/m 0 min 0 min 0 W/m 6,4 km/h (2 Bft) 95,65 %
14.03.2021 20:10 5,9 C 5,0 C 3,4 C 86 % 1013,2 hPa 0,0 l/m 0 min 0 min 0 W/m 3,2 km/h (1 Bft) 95,74 %
14.03.2021 20:12 5,9 C 5,0 C 3,4 C 86 % 1013,2 hPa 0,0 l/m 0 min 0 min 0 W/m 6,4 km/h (2 Bft) 95,74 %
14.03.2021 20:14 5,9 C 5,0 C 3,4 C 86 % 1013,2 hPa 0,0 l/m 0 min 0 min 0 W/m 6,4 km/h (2 Bft) 97,56 %
14.03.2021 20:16 5,8 C 5,0 C 3,4 C 86 % 1013,2 hPa 0,0 l/m 0 min 0 min 0 W/m 9,7 km/h (2 Bft) 96,23 %
14.03.2021 20:18 5,8 C 5,0 C 3,4 C 86 % 1013,1 hPa 0,0 l/m 0 min 0 min 0 W/m 12,9 km/h (3 Bft) 95,65 %
14.03.2021 20:20 5,8 C 5,0 C 3,4 C 86 % 1013,1 hPa 0,0 l/m 0 min 0 min 0 W/m 6,4 km/h (2 Bft) 100,00 %
14.03.2021 20:22 5,9 C 5,0 C 3,4 C 86 % 1013,1 hPa 0,0 l/m 0 min 0 min 0 W/m 6,4 km/h (2 Bft) 100,00 %
14.03.2021 20:24 5,8 C 5,0 C 3,4 C 86 % 1013,1 hPa 0,0 l/m 0 min 0 min 0 W/m 6,4 km/h (2 Bft) 95,74 %
14.03.2021 20:26 5,8 C 5,0 C 3,4 C 87 % 1013,1 hPa 0,0 l/m 0 min 0 min 0 W/m 3,2 km/h (1 Bft) 100,00 %
14.03.2021 20:28 5,8 C 5,0 C 3,4 C 87 % 1013,1 hPa 0,0 l/m 0 min 0 min 0 W/m 3,2 km/h (1 Bft) 100,00 %
14.03.2021 20:30 5,8 C 5,0 C 3,4 C 87 % 1013,1 hPa 0,0 l/m 0 min 0 min 0 W/m 9,7 km/h (2 Bft) 95,74 %
14.03.2021 20:32 5,8 C 5,0 C 3,4 C 87 % 1013,1 hPa 0,0 l/m 0 min 0 min 0 W/m 9,7 km/h (2 Bft) 97,22 %
14.03.2021 20:34 5,8 C 5,0 C 3,4 C 87 % 1013,1 hPa 0,0 l/m 0 min 0 min 0 W/m 9,7 km/h (2 Bft) 97,83 %
14.03.2021 20:36 5,8 C 5,0 C 3,4 C 87 % 1013,1 hPa 0,0 l/m 0 min 0 min 0 W/m 6,4 km/h (2 Bft) 97,87 %
14.03.2021 20:38 5,8 C 5,0 C 3,4 C 87 % 1013,1 hPa 0,0 l/m 0 min 0 min 0 W/m 6,4 km/h (2 Bft) 98,31 %
14.03.2021 20:40 5,8 C 5,0 C 3,4 C 87 % 1013,0 hPa 0,0 l/m 0 min 0 min 0 W/m 6,4 km/h (2 Bft) 91,67 %
14.03.2021 20:42 5,8 C 5,0 C 3,4 C 88 % 1013,1 hPa 0,0 l/m 0 min 0 min 0 W/m 12,9 km/h (3 Bft) 97,87 %
14.03.2021 20:44 5,8 C 5,0 C 3,4 C 88 % 1013,2 hPa 0,0 l/m 0 min 0 min 0 W/m 6,4 km/h (2 Bft) 97,87 %
14.03.2021 20:46 5,8 C 5,0 C 3,4 C 88 % 1013,2 hPa 0,0 l/m 0 min 2 min 0 W/m 12,9 km/h (3 Bft) 93,48 %
14.03.2021 20:48 5,8 C 5,0 C 3,4 C 88 % 1013,2 hPa 0,0 l/m 0 min 0 min 0 W/m 6,4 km/h (2 Bft) 97,87 %
14.03.2021 20:50 5,8 C 5,0 C 3,4 C 88 % 1013,1 hPa 0,0 l/m 0 min 0 min 0 W/m 16,1 km/h (3 Bft) 91,49 %
14.03.2021 20:52 5,8 C 5,0 C 3,4 C 88 % 1013,2 hPa 0,0 l/m 0 min 2 min 0 W/m 12,9 km/h (3 Bft) 95,74 %
14.03.2021 20:54 5,8 C 5,0 C 3,4 C 88 % 1013,2 hPa 0,0 l/m 0 min 0 min 0 W/m 16,1 km/h (3 Bft) 97,87 %
14.03.2021 20:56 5,9 C 5,6 C 3,4 C 88 % 1013,2 hPa 0,0 l/m 0 min 2 min 0 W/m 25,7 km/h (4 Bft) 97,87 %
14.03.2021 20:58 5,9 C 5,6 C 3,4 C 88 % 1013,2 hPa 0,0 l/m 0 min 2 min 0 W/m 12,9 km/h (3 Bft) 39,39 %
14.03.2021 21:00 5,9 C 5,6 C 3,4 C 88 % 1013,1 hPa 0,0 l/m 0 min 2 min 0 W/m 22,5 km/h (4 Bft) 97,87 %
14.03.2021 21:02 5,9 C 5,6 C 3,4 C 88 % 1013,2 hPa 0,0 l/m 0 min 2 min 0 W/m 29,0 km/h (5 Bft) 97,92 %
14.03.2021 21:04 5,9 C 5,0 C 3,4 C 88 % 1013,1 hPa 0,0 l/m 0 min 2 min 0 W/m 12,9 km/h (3 Bft) 97,87 %
14.03.2021 21:06 5,9 C 5,0 C 3,4 C 88 % 1013,1 hPa 0,0 l/m 0 min 0 min 0 W/m 16,1 km/h (3 Bft) 97,87 %
14.03.2021 21:08 5,8 C 5,0 C 3,4 C 88 % 1013,1 hPa 0,0 l/m 0 min 0 min 0 W/m 16,1 km/h (3 Bft) 97,87 %
14.03.2021 21:10 5,8 C 5,0 C 3,4 C 88 % 1013,1 hPa 0,0 l/m 0 min 0 min 0 W/m 12,9 km/h (3 Bft) 100,00 %
14.03.2021 21:12 5,7 C 5,0 C 3,4 C 88 % 1013,0 hPa 0,0 l/m 0 min 0 min 0 W/m 6,4 km/h (2 Bft) 97,87 %
14.03.2021 21:14 5,6 C 5,0 C 3,4 C 88 % 1013,0 hPa 0,0 l/m 0 min 0 min 0 W/m 3,2 km/h (1 Bft) 100,00 %
14.03.2021 21:16 5,6 C 5,0 C 3,4 C 89 % 1013,0 hPa 0,0 l/m 0 min 0 min 0 W/m 12,9 km/h (3 Bft) 100,00 %
14.03.2021 21:18 5,6 C 5,0 C 3,4 C 89 % 1013,0 hPa 0,0 l/m 0 min 0 min 0 W/m 3,2 km/h (1 Bft) 97,87 %
14.03.2021 21:20 5,5 C 5,0 C 3,4 C 89 % 1013,0 hPa 0,0 l/m 0 min 0 min 0 W/m 12,9 km/h (3 Bft) 100,00 %
14.03.2021 21:22 5,5 C 5,0 C 3,4 C 89 % 1013,1 hPa 0,0 l/m 0 min 0 min 0 W/m 12,9 km/h (3 Bft) 97,83 %
14.03.2021 21:24 5,5 C 5,0 C 3,4 C 88 % 1013,0 hPa 0,0 l/m 0 min 0 min 0 W/m 22,5 km/h (4 Bft) 100,00 %
14.03.2021 21:26 5,5 C 5,0 C 3,4 C 88 % 1013,0 hPa 0,0 l/m 0 min 0 min 0 W/m 16,1 km/h (3 Bft) 100,00 %
14.03.2021 21:28 5,5 C 5,0 C 3,4 C 88 % 1013,0 hPa 0,0 l/m 0 min 0 min 0 W/m 22,5 km/h (4 Bft) 97,87 %
14.03.2021 21:30 5,5 C 5,0 C 3,4 C 88 % 1013,1 hPa 0,0 l/m 0 min 0 min 0 W/m 12,9 km/h (3 Bft) 97,87 %
14.03.2021 21:32 5,5 C 5,0 C 3,4 C 88 % 1013,0 hPa 0,0 l/m 0 min 0 min 0 W/m 19,3 km/h (3 Bft) 97,83 %
14.03.2021 21:34 5,5 C 5,0 C 3,4 C 88 % 1013,0 hPa 0,0 l/m 0 min 0 min 0 W/m 12,9 km/h (3 Bft) 97,87 %
14.03.2021 21:36 5,5 C 5,0 C 3,4 C 88 % 1013,0 hPa 0,0 l/m 0 min 0 min 0 W/m 12,9 km/h (3 Bft) 97,87 %
14.03.2021 21:38 5,4 C 4,4 C 3,4 C 88 % 1013,0 hPa 0,0 l/m 0 min 0 min 0 W/m 12,9 km/h (3 Bft) 97,87 %
14.03.2021 21:40 5,4 C 4,4 C 3,4 C 89 % 1012,9 hPa 0,0 l/m 0 min 0 min 0 W/m 16,1 km/h (3 Bft) 95,74 %
14.03.2021 21:42 5,3 C 4,4 C 3,4 C 89 % 1012,9 hPa 0,0 l/m 0 min 0 min 0 W/m 16,1 km/h (3 Bft) 97,87 %
14.03.2021 21:44 5,3 C 4,4 C 3,4 C 89 % 1012,9 hPa 0,0 l/m 0 min 0 min 0 W/m 6,4 km/h (2 Bft) 97,87 %
14.03.2021 21:46 5,3 C 4,4 C 3,4 C 89 % 1012,9 hPa 0,0 l/m 0 min 0 min 0 W/m 6,4 km/h (2 Bft) 95,65 %
14.03.2021 21:48 5,2 C 4,4 C 3,4 C 89 % 1012,8 hPa 0,0 l/m 0 min 0 min 0 W/m 6,4 km/h (2 Bft) 97,87 %
14.03.2021 21:50 5,2 C 4,4 C 3,4 C 89 % 1012,8 hPa 0,0 l/m 0 min 0 min 0 W/m 16,1 km/h (3 Bft) 95,74 %
14.03.2021 21:52 5,2 C 4,4 C 3,4 C 89 % 1012,8 hPa 0,0 l/m 0 min 0 min 0 W/m 12,9 km/h (3 Bft) 97,87 %
14.03.2021 21:54 5,1 C 4,4 C 3,4 C 90 % 1012,8 hPa 0,0 l/m 0 min 0 min 0 W/m 6,4 km/h (2 Bft) 97,87 %
14.03.2021 21:56 5,1 C 4,4 C 3,4 C 90 % 1012,8 hPa 0,0 l/m 0 min 0 min 0 W/m 3,2 km/h (1 Bft) 95,65 %
14.03.2021 21:58 5,1 C 4,4 C 3,4 C 90 % 1012,8 hPa 0,0 l/m 0 min 0 min 0 W/m 9,7 km/h (2 Bft) 97,87 %
14.03.2021 22:00 5,1 C 4,4 C 3,4 C 90 % 1012,8 hPa 0,0 l/m 0 min 0 min 0 W/m 6,4 km/h (2 Bft) 97,87 %
14.03.2021 22:02 5,1 C 4,4 C 3,4 C 90 % 1012,7 hPa 0,0 l/m 0 min 0 min 0 W/m 16,1 km/h (3 Bft) 95,83 %
14.03.2021 22:04 5,1 C 4,4 C 3,4 C 90 % 1012,7 hPa 0,0 l/m 0 min 0 min 0 W/m 3,2 km/h (1 Bft) 97,87 %
14.03.2021 22:06 5,1 C 4,4 C 3,4 C 90 % 1012,7 hPa 0,0 l/m 0 min 0 min 0 W/m 3,2 km/h (1 Bft) 97,87 %
14.03.2021 22:08 5,1 C 4,4 C 3,4 C 90 % 1012,7 hPa 0,0 l/m 0 min 0 min 0 W/m 12,9 km/h (3 Bft) 97,87 %
14.03.2021 22:10 5,1 C 4,4 C 3,4 C 90 % 1012,7 hPa 0,0 l/m 0 min 0 min 0 W/m 6,4 km/h (2 Bft) 97,87 %
14.03.2021 22:12 5,2 C 4,4 C 3,4 C 90 % 1012,6 hPa 0,0 l/m 0 min 0 min 0 W/m 12,9 km/h (3 Bft) 95,74 %
14.03.2021 22:14 5,2 C 4,4 C 3,4 C 90 % 1012,7 hPa 0,0 l/m 0 min 0 min 0 W/m 12,9 km/h (3 Bft) 97,87 %
14.03.2021 22:16 5,2 C 4,4 C 3,4 C 90 % 1012,6 hPa 0,0 l/m 0 min 0 min 0 W/m 12,9 km/h (3 Bft) 97,87 %
14.03.2021 22:18 5,3 C 4,4 C 3,4 C 90 % 1012,6 hPa 0,0 l/m 0 min 0 min 0 W/m 19,3 km/h (3 Bft) 97,87 %
14.03.2021 22:20 5,3 C 4,4 C 3,4 C 90 % 1012,5 hPa 0,0 l/m 0 min 0 min 0 W/m 12,9 km/h (3 Bft) 93,48 %
14.03.2021 22:22 5,3 C 4,4 C 3,4 C 90 % 1012,6 hPa 0,0 l/m 0 min 0 min 0 W/m 9,7 km/h (2 Bft) 97,87 %
14.03.2021 22:24 5,3 C 4,4 C 3,4 C 90 % 1012,5 hPa 0,0 l/m 0 min 0 min 0 W/m 6,4 km/h (2 Bft) 97,87 %
14.03.2021 22:26 5,3 C 4,4 C 3,4 C 90 % 1012,5 hPa 0,0 l/m 0 min 0 min 0 W/m 6,4 km/h (2 Bft) 97,87 %
14.03.2021 22:28 5,3 C 4,4 C 3,4 C 90 % 1012,5 hPa 0,0 l/m 0 min 0 min 0 W/m 6,4 km/h (2 Bft) 97,87 %
14.03.2021 22:30 5,3 C 4,4 C 3,4 C 90 % 1012,4 hPa 0,0 l/m 0 min 0 min 0 W/m 12,9 km/h (3 Bft) 95,74 %
14.03.2021 22:32 5,2 C 4,4 C 3,4 C 90 % 1012,4 hPa 0,0 l/m 0 min 0 min 0 W/m 9,7 km/h (2 Bft) 95,74 %
14.03.2021 22:34 5,2 C 4,4 C 3,4 C 90 % 1012,4 hPa 0,0 l/m 0 min 0 min 0 W/m 9,7 km/h (2 Bft) 93,62 %
14.03.2021 22:36 5,2 C 4,4 C 3,4 C 90 % 1012,5 hPa 0,0 l/m 0 min 0 min 0 W/m 16,1 km/h (3 Bft) 93,62 %
14.03.2021 22:38 5,2 C 4,4 C 3,4 C 90 % 1012,4 hPa 0,0 l/m 0 min 0 min 0 W/m 12,9 km/h (3 Bft) 95,74 %
14.03.2021 22:40 5,2 C 4,4 C 3,4 C 91 % 1012,4 hPa 0,0 l/m 0 min 0 min 0 W/m 12,9 km/h (3 Bft) 93,62 %
14.03.2021 22:42 5,2 C 4,4 C 3,4 C 91 % 1012,4 hPa 0,0 l/m 0 min 0 min 0 W/m 12,9 km/h (3 Bft) 93,02 %
14.03.2021 22:44 5,2 C 4,4 C 3,4 C 91 % 1012,4 hPa 0,0 l/m 0 min 0 min 0 W/m 12,9 km/h (3 Bft) 95,65 %
14.03.2021 22:46 5,2 C 4,4 C 3,4 C 91 % 1012,4 hPa 0,0 l/m 0 min 0 min 0 W/m 16,1 km/h (3 Bft) 95,74 %
14.03.2021 22:48 5,2 C 4,4 C 3,4 C 91 % 1012,4 hPa 0,0 l/m 0 min 0 min 0 W/m 9,7 km/h (2 Bft) 95,74 %
14.03.2021 22:50 5,1 C 4,4 C 3,4 C 91 % 1012,4 hPa 0,0 l/m 0 min 0 min 0 W/m 16,1 km/h (3 Bft) 91,49 %
14.03.2021 22:52 5,1 C 4,4 C 3,4 C 91 % 1012,3 hPa 0,0 l/m 0 min 0 min 0 W/m 9,7 km/h (2 Bft) 91,49 %
14.03.2021 22:54 5,1 C 4,4 C 2,8 C 91 % 1012,3 hPa 0,0 l/m 0 min 0 min 0 W/m 12,9 km/h (3 Bft) 93,62 %
14.03.2021 22:56 5,1 C 4,4 C 2,8 C 91 % 1012,3 hPa 0,0 l/m 0 min 0 min 0 W/m 6,4 km/h (2 Bft) 93,48 %
14.03.2021 22:58 5,1 C 4,4 C 2,8 C 91 % 1012,3 hPa 0,0 l/m 0 min 0 min 0 W/m 16,1 km/h (3 Bft) 93,62 %
14.03.2021 23:00 5,0 C 4,4 C 2,8 C 91 % 1012,3 hPa 0,0 l/m 0 min 0 min 0 W/m 32,2 km/h (5 Bft) 93,62 %
14.03.2021 23:02 5,0 C 4,4 C 2,8 C 91 % 1012,2 hPa 0,0 l/m 0 min 0 min 0 W/m 12,9 km/h (3 Bft) 93,75 %
14.03.2021 23:04 5,0 C 4,4 C 2,8 C 91 % 1012,2 hPa 0,0 l/m 0 min 0 min 0 W/m 16,1 km/h (3 Bft) 93,62 %
14.03.2021 23:06 5,0 C 4,4 C 2,8 C 91 % 1012,1 hPa 0,0 l/m 0 min 0 min 0 W/m 19,3 km/h (3 Bft) 91,30 %
14.03.2021 23:08 5,0 C 4,4 C 2,8 C 91 % 1012,0 hPa 0,0 l/m 0 min 0 min 0 W/m 19,3 km/h (3 Bft) 95,74 %
14.03.2021 23:10 5,0 C 4,4 C 2,8 C 91 % 1012,1 hPa 0,0 l/m 0 min 0 min 0 W/m 12,9 km/h (3 Bft) 95,74 %
14.03.2021 23:12 4,9 C 4,4 C 2,8 C 91 % 1012,0 hPa 0,0 l/m 0 min 0 min 0 W/m 22,5 km/h (4 Bft) 93,62 %
14.03.2021 23:14 4,9 C 4,4 C 2,8 C 91 % 1011,9 hPa 0,0 l/m 0 min 0 min 0 W/m 16,1 km/h (3 Bft) 95,74 %
14.03.2021 23:16 4,9 C 4,4 C 2,8 C 91 % 1011,9 hPa 0,0 l/m 0 min 0 min 0 W/m 16,1 km/h (3 Bft) 93,62 %
14.03.2021 23:18 4,9 C 4,4 C 2,8 C 91 % 1011,9 hPa 0,0 l/m 0 min 0 min 0 W/m 16,1 km/h (3 Bft) 95,65 %
14.03.2021 23:20 4,9 C 4,4 C 2,8 C 91 % 1011,9 hPa 0,0 l/m 0 min 0 min 0 W/m 16,1 km/h (3 Bft) 95,74 %
14.03.2021 23:22 4,9 C 4,4 C 3,4 C 91 % 1011,9 hPa 0,0 l/m 0 min 0 min 0 W/m 9,7 km/h (2 Bft) 95,74 %
14.03.2021 23:24 4,9 C 4,4 C 3,4 C 91 % 1011,9 hPa 0,0 l/m 0 min 0 min 0 W/m 12,9 km/h (3 Bft) 97,87 %
14.03.2021 23:26 5,0 C 4,4 C 3,4 C 91 % 1011,9 hPa 0,0 l/m 0 min 0 min 0 W/m 12,9 km/h (3 Bft) 95,74 %
14.03.2021 23:28 5,0 C 4,4 C 3,4 C 91 % 1011,9 hPa 0,0 l/m 0 min 0 min 0 W/m 12,9 km/h (3 Bft) 97,87 %
14.03.2021 23:30 5,0 C 4,4 C 3,4 C 91 % 1011,9 hPa 0,0 l/m 0 min 0 min 0 W/m 19,3 km/h (3 Bft) 97,83 %
14.03.2021 23:32 5,0 C 4,4 C 3,4 C 91 % 1011,9 hPa 0,0 l/m 0 min 0 min 0 W/m 12,9 km/h (3 Bft) 97,87 %
14.03.2021 23:34 5,0 C 4,4 C 3,4 C 91 % 1011,9 hPa 0,0 l/m 0 min 0 min 0 W/m 9,7 km/h (2 Bft) 100,00 %
14.03.2021 23:36 5,0 C 4,4 C 3,4 C 92 % 1011,9 hPa 0,0 l/m 0 min 0 min 0 W/m 19,3 km/h (3 Bft) 100,00 %
14.03.2021 23:38 5,0 C 4,4 C 3,4 C 92 % 1011,9 hPa 0,0 l/m 0 min 0 min 0 W/m 25,7 km/h (4 Bft) 100,00 %
14.03.2021 23:40 5,0 C 4,4 C 3,4 C 92 % 1011,8 hPa 0,0 l/m 0 min 0 min 0 W/m 6,4 km/h (2 Bft) 100,00 %
14.03.2021 23:42 5,0 C 4,4 C 3,4 C 92 % 1011,8 hPa 0,0 l/m 0 min 0 min 0 W/m 12,9 km/h (3 Bft) 100,00 %
14.03.2021 23:44 5,0 C 4,4 C 3,4 C 92 % 1011,8 hPa 0,0 l/m 0 min 0 min 0 W/m 12,9 km/h (3 Bft) 100,00 %
14.03.2021 23:46 5,1 C 4,4 C 3,4 C 92 % 1011,8 hPa 0,0 l/m 0 min 0 min 0 W/m 22,5 km/h (4 Bft) 100,00 %
14.03.2021 23:48 5,1 C 4,4 C 3,4 C 92 % 1011,7 hPa 0,0 l/m 0 min 0 min 0 W/m 16,1 km/h (3 Bft) 100,00 %
14.03.2021 23:50 5,1 C 4,4 C 3,4 C 91 % 1011,7 hPa 0,0 l/m 0 min 0 min 0 W/m 9,7 km/h (2 Bft) 100,00 %
14.03.2021 23:52 5,1 C 4,4 C 3,4 C 91 % 1011,6 hPa 0,0 l/m 0 min 0 min 0 W/m 12,9 km/h (3 Bft) 100,00 %
14.03.2021 23:54 5,1 C 4,4 C 3,4 C 91 % 1011,6 hPa 0,0 l/m 0 min 2 min 0 W/m 12,9 km/h (3 Bft) 100,00 %
14.03.2021 23:56 5,1 C 4,4 C 3,4 C 91 % 1011,6 hPa 0,0 l/m 0 min 2 min 0 W/m 19,3 km/h (3 Bft) 100,00 %
14.03.2021 23:58 5,1 C 4,4 C 3,4 C 91 % 1011,5 hPa 0,0 l/m 0 min 2 min 0 W/m 16,1 km/h (3 Bft) 100,00 %
_ Min-Zeit 06:38 06:28 08:26 16:24 00:00 - - - - 09:28 20:58
Minimum _ 3,5 C 2,8 C 1,7 C 75 % 1001,3 hPa - - - - 3,2 km/h (1 Bft) 39,39 %
_ Max-Zeit 15:56 14:22 11:58 10:00 19:46 08:18 12:08 07:58 12:02 16:24 00:14
Maximum _ 8,9 C 15,0 C 8,9 C 95 % 1013,3 hPa 0,2 l/m 4 min 2 min 810 W/m 41,8 km/h
O-NO (6 Bft)
100,00 %
Durchschnitt _ 5,4 C 5,2 C 3,6 C 88 % 1009,1 hPa #2,6 l/m #2:28 h #3:58 h 145 W/m 14,5 km/h (3 Bft) 97,36 %
© 2021 W. Hausmann